Wetterdaten: Sonntag, 08.10.2023
Datum Zeit Temp. Aussen Temp. o. S. Temp +5cm Feuchte Auss Luftdruck Regen Sonnenschein Regendauer Solar Windben Empfang
08.10.2023 00:00 18,5 C 17,8 C 13,9 C 81 % 1022,8 hPa 0,0 l/m 0 min 0 min 0 W/m 12,9 km/h (3 Bft) 95,74 %
08.10.2023 00:02 18,5 C 17,8 C 13,9 C 80 % 1022,8 hPa 0,0 l/m 0 min 0 min 0 W/m 12,9 km/h (3 Bft) 95,12 %
08.10.2023 00:04 18,5 C 17,8 C 13,9 C 80 % 1022,8 hPa 0,0 l/m 0 min 0 min 0 W/m 9,7 km/h (2 Bft) 93,62 %
08.10.2023 00:08 18,5 C 17,8 C 13,9 C 80 % 1022,7 hPa 0,0 l/m 0 min 0 min 0 W/m 19,3 km/h (3 Bft) 95,88 %
08.10.2023 00:10 18,4 C 17,8 C 13,9 C 80 % 1022,8 hPa 0,0 l/m 0 min 0 min 0 W/m 9,7 km/h (2 Bft) 93,62 %
08.10.2023 00:12 18,4 C 17,8 C 13,9 C 80 % 1022,8 hPa 0,0 l/m 0 min 0 min 0 W/m 12,9 km/h (3 Bft) 95,74 %
08.10.2023 00:14 18,4 C 17,8 C 13,9 C 80 % 1022,9 hPa 0,0 l/m 0 min 0 min 0 W/m 16,1 km/h (3 Bft) 95,74 %
08.10.2023 00:16 18,4 C 17,8 C 13,9 C 80 % 1022,9 hPa 0,0 l/m 0 min 0 min 0 W/m 12,9 km/h (3 Bft) 97,83 %
08.10.2023 00:18 18,4 C 17,2 C 13,9 C 80 % 1022,9 hPa 0,0 l/m 0 min 0 min 0 W/m 6,4 km/h (2 Bft) 95,74 %
08.10.2023 00:20 18,4 C 17,8 C 13,9 C 80 % 1022,9 hPa 0,0 l/m 0 min 0 min 0 W/m 9,7 km/h (2 Bft) 95,74 %
08.10.2023 00:22 18,4 C 17,2 C 13,9 C 80 % 1022,8 hPa 0,0 l/m 0 min 0 min 0 W/m 12,9 km/h (3 Bft) 97,87 %
08.10.2023 00:24 18,4 C 17,8 C 13,9 C 80 % 1022,8 hPa 0,0 l/m 0 min 0 min 0 W/m 16,1 km/h (3 Bft) 97,87 %
08.10.2023 00:26 18,4 C 17,8 C 13,9 C 80 % 1022,8 hPa 0,0 l/m 0 min 0 min 0 W/m 12,9 km/h (3 Bft) 97,87 %
08.10.2023 00:28 18,4 C 17,8 C 13,9 C 80 % 1022,8 hPa 0,0 l/m 0 min 0 min 0 W/m 12,9 km/h (3 Bft) 97,87 %
08.10.2023 00:30 18,4 C 17,8 C 13,9 C 80 % 1022,8 hPa 0,0 l/m 0 min 0 min 0 W/m 12,9 km/h (3 Bft) 97,87 %
08.10.2023 00:32 18,4 C 17,8 C 13,9 C 80 % 1022,8 hPa 0,0 l/m 0 min 0 min 0 W/m 19,3 km/h (3 Bft) 95,65 %
08.10.2023 00:34 18,4 C 17,8 C 13,9 C 80 % 1022,9 hPa 0,0 l/m 0 min 0 min 0 W/m 6,4 km/h (2 Bft) 97,87 %
08.10.2023 00:36 18,4 C 17,2 C 13,9 C 80 % 1022,9 hPa 0,0 l/m 0 min 0 min 0 W/m 9,7 km/h (2 Bft) 95,74 %
08.10.2023 00:38 18,4 C 17,2 C 13,9 C 80 % 1022,8 hPa 0,0 l/m 0 min 0 min 0 W/m 12,9 km/h (3 Bft) 97,87 %
08.10.2023 00:40 18,4 C 17,2 C 13,9 C 80 % 1022,8 hPa 0,0 l/m 0 min 0 min 0 W/m 16,1 km/h (3 Bft) 100,00 %
08.10.2023 00:42 18,4 C 17,8 C 13,9 C 79 % 1022,8 hPa 0,0 l/m 0 min 0 min 0 W/m 12,9 km/h (3 Bft) 100,00 %
08.10.2023 00:44 18,4 C 17,8 C 13,9 C 79 % 1022,8 hPa 0,0 l/m 0 min 0 min 0 W/m 12,9 km/h (3 Bft) 97,87 %
08.10.2023 00:46 18,4 C 17,8 C 13,9 C 79 % 1022,8 hPa 0,0 l/m 0 min 0 min 0 W/m 16,1 km/h (3 Bft) 97,87 %
08.10.2023 00:48 18,4 C 17,8 C 13,9 C 79 % 1022,7 hPa 0,0 l/m 0 min 0 min 0 W/m 19,3 km/h (3 Bft) 97,87 %
08.10.2023 00:50 18,4 C 17,2 C 13,9 C 79 % 1022,8 hPa 0,0 l/m 0 min 0 min 0 W/m 12,9 km/h (3 Bft) 100,00 %
08.10.2023 00:52 18,4 C 17,8 C 13,9 C 79 % 1022,9 hPa 0,0 l/m 0 min 0 min 0 W/m 12,9 km/h (3 Bft) 100,00 %
08.10.2023 00:54 18,4 C 17,8 C 13,9 C 79 % 1022,9 hPa 0,0 l/m 0 min 0 min 0 W/m 12,9 km/h (3 Bft) 100,00 %
08.10.2023 00:56 18,4 C 17,2 C 13,9 C 79 % 1022,9 hPa 0,0 l/m 0 min 0 min 0 W/m 16,1 km/h (3 Bft) 100,00 %
08.10.2023 00:58 18,4 C 17,2 C 13,9 C 79 % 1022,9 hPa 0,0 l/m 0 min 0 min 0 W/m 6,4 km/h (2 Bft) 95,74 %
08.10.2023 01:00 18,4 C 17,2 C 13,9 C 79 % 1022,9 hPa 0,0 l/m 0 min 0 min 0 W/m 12,9 km/h (3 Bft) 97,87 %
08.10.2023 01:02 18,4 C 17,2 C 13,9 C 79 % 1022,8 hPa 0,0 l/m 0 min 0 min 0 W/m 12,9 km/h (3 Bft) 95,74 %
08.10.2023 01:04 18,4 C 17,2 C 13,9 C 79 % 1022,9 hPa 0,0 l/m 0 min 0 min 0 W/m 12,9 km/h (3 Bft) 97,87 %
08.10.2023 01:06 18,3 C 17,2 C 13,3 C 79 % 1022,8 hPa 0,0 l/m 0 min 0 min 0 W/m 16,1 km/h (3 Bft) 97,83 %
08.10.2023 01:08 18,3 C 17,2 C 13,3 C 79 % 1022,8 hPa 0,0 l/m 0 min 0 min 0 W/m 6,4 km/h (2 Bft) 97,87 %
08.10.2023 01:10 18,3 C 17,2 C 13,3 C 79 % 1022,8 hPa 0,0 l/m 0 min 0 min 0 W/m 12,9 km/h (3 Bft) 97,87 %
08.10.2023 01:12 18,3 C 17,2 C 13,3 C 79 % 1022,7 hPa 0,0 l/m 0 min 0 min 0 W/m 12,9 km/h (3 Bft) 95,74 %
08.10.2023 01:14 18,3 C 17,2 C 13,3 C 79 % 1022,8 hPa 0,0 l/m 0 min 0 min 0 W/m 9,7 km/h (2 Bft) 97,87 %
08.10.2023 01:16 18,3 C 17,2 C 13,3 C 79 % 1022,8 hPa 0,0 l/m 0 min 0 min 0 W/m 16,1 km/h (3 Bft) 97,87 %
08.10.2023 01:18 18,3 C 17,2 C 13,3 C 79 % 1022,8 hPa 0,0 l/m 0 min 0 min 0 W/m 12,9 km/h (3 Bft) 97,87 %
08.10.2023 01:20 18,3 C 17,2 C 13,3 C 79 % 1022,9 hPa 0,0 l/m 0 min 0 min 0 W/m 16,1 km/h (3 Bft) 97,87 %
08.10.2023 01:22 18,3 C 17,2 C 13,3 C 79 % 1023,0 hPa 0,0 l/m 0 min 0 min 0 W/m 12,9 km/h (3 Bft) 97,83 %
08.10.2023 01:24 18,2 C 17,2 C 13,3 C 79 % 1023,0 hPa 0,0 l/m 0 min 0 min 0 W/m 19,3 km/h (3 Bft) 97,87 %
08.10.2023 01:26 18,2 C 17,2 C 13,3 C 79 % 1023,1 hPa 0,0 l/m 0 min 0 min 0 W/m 12,9 km/h (3 Bft) 97,87 %
08.10.2023 01:28 18,2 C 17,2 C 13,3 C 79 % 1023,1 hPa 0,0 l/m 0 min 0 min 0 W/m 12,9 km/h (3 Bft) 97,87 %
08.10.2023 01:30 18,2 C 17,2 C 13,3 C 79 % 1023,1 hPa 0,0 l/m 0 min 0 min 0 W/m 6,4 km/h (2 Bft) 100,00 %
08.10.2023 01:32 18,2 C 17,2 C 13,3 C 79 % 1023,1 hPa 0,0 l/m 0 min 0 min 0 W/m 12,9 km/h (3 Bft) 100,00 %
08.10.2023 01:34 18,2 C 17,2 C 13,3 C 80 % 1023,1 hPa 0,0 l/m 0 min 0 min 0 W/m 9,7 km/h (2 Bft) 100,00 %
08.10.2023 01:36 18,2 C 17,2 C 13,3 C 80 % 1023,2 hPa 0,0 l/m 0 min 0 min 0 W/m 9,7 km/h (2 Bft) 100,00 %
08.10.2023 01:38 18,1 C 17,2 C 13,3 C 80 % 1023,2 hPa 0,0 l/m 0 min 0 min 0 W/m 16,1 km/h (3 Bft) 100,00 %
08.10.2023 01:40 18,1 C 17,2 C 13,3 C 80 % 1023,2 hPa 0,0 l/m 0 min 0 min 0 W/m 9,7 km/h (2 Bft) 100,00 %
08.10.2023 01:42 18,1 C 17,2 C 13,3 C 80 % 1023,2 hPa 0,0 l/m 0 min 0 min 0 W/m 6,4 km/h (2 Bft) 100,00 %
08.10.2023 01:44 18,1 C 17,2 C 13,3 C 80 % 1023,2 hPa 0,0 l/m 0 min 0 min 0 W/m 6,4 km/h (2 Bft) 97,37 %
08.10.2023 01:46 18,1 C 17,2 C 13,3 C 80 % 1023,2 hPa 0,0 l/m 0 min 0 min 0 W/m 12,9 km/h (3 Bft) 100,00 %
08.10.2023 01:48 18,1 C 17,2 C 13,3 C 80 % 1023,2 hPa 0,0 l/m 0 min 0 min 0 W/m 6,4 km/h (2 Bft) 100,00 %
08.10.2023 01:50 18,1 C 17,2 C 13,3 C 80 % 1023,2 hPa 0,0 l/m 0 min 0 min 0 W/m 12,9 km/h (3 Bft) 100,00 %
08.10.2023 01:52 18,1 C 17,2 C 13,3 C 80 % 1023,2 hPa 0,0 l/m 0 min 0 min 0 W/m 6,4 km/h (2 Bft) 97,87 %
08.10.2023 01:54 18,1 C 17,2 C 13,3 C 80 % 1023,3 hPa 0,0 l/m 0 min 0 min 0 W/m 12,9 km/h (3 Bft) 100,00 %
08.10.2023 01:56 18,0 C 17,2 C 13,3 C 80 % 1023,3 hPa 0,0 l/m 0 min 0 min 0 W/m 6,4 km/h (2 Bft) 100,00 %
08.10.2023 01:58 18,0 C 16,7 C 13,3 C 80 % 1023,3 hPa 0,0 l/m 0 min 0 min 0 W/m 6,4 km/h (2 Bft) 100,00 %
08.10.2023 02:00 18,0 C 16,7 C 13,3 C 80 % 1023,3 hPa 0,0 l/m 0 min 0 min 0 W/m 12,9 km/h (3 Bft) 100,00 %
08.10.2023 02:02 17,9 C 16,7 C 13,3 C 80 % 1023,2 hPa 0,0 l/m 0 min 0 min 0 W/m 12,9 km/h (3 Bft) 100,00 %
08.10.2023 02:04 17,9 C 16,7 C 13,3 C 80 % 1023,3 hPa 0,0 l/m 0 min 0 min 0 W/m 6,4 km/h (2 Bft) 95,92 %
08.10.2023 02:06 17,9 C 16,7 C 13,3 C 80 % 1023,3 hPa 0,0 l/m 0 min 0 min 0 W/m 16,1 km/h (3 Bft) 97,87 %
08.10.2023 02:08 17,9 C 16,7 C 13,3 C 80 % 1023,3 hPa 0,0 l/m 0 min 0 min 0 W/m 12,9 km/h (3 Bft) 100,00 %
08.10.2023 02:10 17,9 C 16,7 C 13,3 C 80 % 1023,4 hPa 0,0 l/m 0 min 0 min 0 W/m 6,4 km/h (2 Bft) 100,00 %
08.10.2023 02:12 17,9 C 16,7 C 13,3 C 80 % 1023,4 hPa 0,0 l/m 0 min 0 min 0 W/m 6,4 km/h (2 Bft) 100,00 %
08.10.2023 02:14 17,8 C 16,7 C 13,3 C 80 % 1023,5 hPa 0,0 l/m 0 min 0 min 0 W/m 12,9 km/h (3 Bft) 97,87 %
08.10.2023 02:16 17,8 C 16,7 C 13,3 C 80 % 1023,5 hPa 0,0 l/m 0 min 0 min 0 W/m 12,9 km/h (3 Bft) 97,87 %
08.10.2023 02:18 17,8 C 16,7 C 12,8 C 80 % 1023,6 hPa 0,0 l/m 0 min 0 min 0 W/m 9,7 km/h (2 Bft) 100,00 %
08.10.2023 02:20 17,8 C 16,7 C 12,8 C 80 % 1023,6 hPa 0,0 l/m 0 min 0 min 0 W/m 6,4 km/h (2 Bft) 97,87 %
08.10.2023 02:22 17,8 C 16,7 C 12,8 C 81 % 1023,6 hPa 0,0 l/m 0 min 0 min 0 W/m 12,9 km/h (3 Bft) 97,87 %
08.10.2023 02:24 17,8 C 16,7 C 12,8 C 81 % 1023,6 hPa 0,0 l/m 0 min 0 min 0 W/m 9,7 km/h (2 Bft) 97,87 %
08.10.2023 02:26 17,7 C 16,7 C 12,8 C 81 % 1023,6 hPa 0,0 l/m 0 min 0 min 0 W/m 3,2 km/h (1 Bft) 97,83 %
08.10.2023 02:28 17,7 C 16,7 C 12,8 C 81 % 1023,5 hPa 0,0 l/m 0 min 0 min 0 W/m 6,4 km/h (2 Bft) 97,87 %
08.10.2023 02:30 17,7 C 16,7 C 12,8 C 81 % 1023,5 hPa 0,0 l/m 0 min 0 min 0 W/m 6,4 km/h (2 Bft) 97,87 %
08.10.2023 02:32 17,7 C 16,7 C 12,8 C 81 % 1023,5 hPa 0,0 l/m 0 min 0 min 0 W/m 6,4 km/h (2 Bft) 95,74 %
08.10.2023 02:34 17,7 C 16,7 C 12,8 C 81 % 1023,5 hPa 0,0 l/m 0 min 0 min 0 W/m 12,9 km/h (3 Bft) 97,87 %
08.10.2023 02:36 17,6 C 16,7 C 12,8 C 81 % 1023,4 hPa 0,0 l/m 0 min 0 min 0 W/m 12,9 km/h (3 Bft) 93,62 %
08.10.2023 02:38 17,6 C 16,7 C 12,8 C 81 % 1023,5 hPa 0,0 l/m 0 min 0 min 0 W/m 9,7 km/h (2 Bft) 93,62 %
08.10.2023 02:40 17,6 C 16,7 C 12,8 C 81 % 1023,5 hPa 0,0 l/m 0 min 0 min 0 W/m 12,9 km/h (3 Bft) 93,62 %
08.10.2023 02:42 17,6 C 16,7 C 12,8 C 81 % 1023,6 hPa 0,0 l/m 0 min 0 min 0 W/m 6,4 km/h (2 Bft) 95,74 %
08.10.2023 02:44 17,6 C 16,7 C 12,8 C 81 % 1023,5 hPa 0,0 l/m 0 min 0 min 0 W/m 12,9 km/h (3 Bft) 95,74 %
08.10.2023 02:46 17,6 C 16,7 C 12,8 C 81 % 1023,6 hPa 0,0 l/m 0 min 0 min 0 W/m 12,9 km/h (3 Bft) 95,74 %
08.10.2023 02:48 17,5 C 16,7 C 12,8 C 81 % 1023,6 hPa 0,0 l/m 0 min 0 min 0 W/m 6,4 km/h (2 Bft) 95,65 %
08.10.2023 02:50 17,5 C 16,7 C 12,8 C 81 % 1023,7 hPa 0,0 l/m 0 min 0 min 0 W/m 6,4 km/h (2 Bft) 95,74 %
08.10.2023 02:52 17,5 C 16,7 C 12,8 C 81 % 1023,7 hPa 0,0 l/m 0 min 0 min 0 W/m 9,7 km/h (2 Bft) 93,62 %
08.10.2023 02:54 17,5 C 16,7 C 12,8 C 81 % 1023,6 hPa 0,0 l/m 0 min 0 min 0 W/m 6,4 km/h (2 Bft) 93,62 %
08.10.2023 02:56 17,4 C 16,7 C 12,8 C 81 % 1023,5 hPa 0,0 l/m 0 min 0 min 0 W/m 12,9 km/h (3 Bft) 91,49 %
08.10.2023 02:58 17,4 C 16,7 C 12,8 C 82 % 1023,5 hPa 0,0 l/m 0 min 0 min 0 W/m 6,4 km/h (2 Bft) 93,62 %
08.10.2023 03:00 17,4 C 16,7 C 12,8 C 82 % 1023,5 hPa 0,0 l/m 0 min 0 min 0 W/m 12,9 km/h (3 Bft) 93,62 %
08.10.2023 03:02 17,4 C 16,7 C 12,8 C 82 % 1023,5 hPa 0,0 l/m 0 min 0 min 0 W/m 12,9 km/h (3 Bft) 91,49 %
08.10.2023 03:04 17,4 C 16,7 C 12,8 C 82 % 1023,6 hPa 0,0 l/m 0 min 0 min 0 W/m 6,4 km/h (2 Bft) 95,83 %
08.10.2023 03:06 17,3 C 16,7 C 12,8 C 82 % 1023,5 hPa 0,0 l/m 0 min 0 min 0 W/m 6,4 km/h (2 Bft) 95,65 %
08.10.2023 03:08 17,3 C 16,1 C 12,8 C 82 % 1023,6 hPa 0,0 l/m 0 min 0 min 0 W/m 6,4 km/h (2 Bft) 95,74 %
08.10.2023 03:10 17,3 C 16,1 C 12,8 C 82 % 1023,6 hPa 0,0 l/m 0 min 0 min 0 W/m 6,4 km/h (2 Bft) 95,74 %
08.10.2023 03:12 17,3 C 16,1 C 12,8 C 82 % 1023,6 hPa 0,0 l/m 0 min 0 min 0 W/m 6,4 km/h (2 Bft) 95,74 %
08.10.2023 03:14 17,3 C 16,1 C 12,8 C 82 % 1023,6 hPa 0,0 l/m 0 min 0 min 0 W/m 9,7 km/h (2 Bft) 93,62 %
08.10.2023 03:16 17,2 C 16,1 C 12,8 C 82 % 1023,5 hPa 0,0 l/m 0 min 0 min 0 W/m 6,4 km/h (2 Bft) 95,74 %
08.10.2023 03:18 17,2 C 16,1 C 12,8 C 82 % 1023,5 hPa 0,0 l/m 0 min 0 min 0 W/m 12,9 km/h (3 Bft) 95,74 %
08.10.2023 03:20 17,2 C 16,1 C 12,8 C 82 % 1023,6 hPa 0,0 l/m 0 min 0 min 0 W/m 12,9 km/h (3 Bft) 95,74 %
08.10.2023 03:22 17,1 C 16,1 C 12,2 C 82 % 1023,7 hPa 0,0 l/m 0 min 0 min 0 W/m 6,4 km/h (2 Bft) 97,87 %
08.10.2023 03:24 17,1 C 16,1 C 12,2 C 82 % 1023,7 hPa 0,0 l/m 0 min 0 min 0 W/m 6,4 km/h (2 Bft) 100,00 %
08.10.2023 03:26 17,1 C 16,1 C 12,2 C 82 % 1023,7 hPa 0,0 l/m 0 min 0 min 0 W/m 6,4 km/h (2 Bft) 100,00 %
08.10.2023 03:28 17,1 C 16,1 C 12,2 C 82 % 1023,8 hPa 0,0 l/m 0 min 0 min 0 W/m 3,2 km/h (1 Bft) 100,00 %
08.10.2023 03:30 17,0 C 16,1 C 12,2 C 83 % 1023,8 hPa 0,0 l/m 0 min 0 min 0 W/m 6,4 km/h (2 Bft) 97,87 %
08.10.2023 03:32 16,9 C 16,1 C 12,2 C 83 % 1023,7 hPa 0,0 l/m 0 min 0 min 0 W/m 16,1 km/h (3 Bft) 100,00 %
08.10.2023 03:34 16,9 C 15,6 C 12,2 C 83 % 1023,7 hPa 0,0 l/m 0 min 0 min 0 W/m 6,4 km/h (2 Bft) 100,00 %
08.10.2023 03:36 16,9 C 15,6 C 12,2 C 83 % 1023,7 hPa 0,0 l/m 0 min 0 min 0 W/m 9,7 km/h (2 Bft) 100,00 %
08.10.2023 03:38 16,8 C 15,6 C 12,2 C 83 % 1023,7 hPa 0,0 l/m 0 min 0 min 0 W/m 3,2 km/h (1 Bft) 97,87 %
08.10.2023 03:40 16,8 C 15,6 C 12,2 C 83 % 1023,8 hPa 0,0 l/m 0 min 0 min 0 W/m 12,9 km/h (3 Bft) 100,00 %
08.10.2023 03:42 16,8 C 15,6 C 12,2 C 83 % 1023,8 hPa 0,0 l/m 0 min 0 min 0 W/m 6,4 km/h (2 Bft) 100,00 %
08.10.2023 03:44 16,7 C 15,6 C 12,2 C 83 % 1023,7 hPa 0,0 l/m 0 min 0 min 0 W/m 6,4 km/h (2 Bft) 100,00 %
08.10.2023 03:46 16,7 C 15,6 C 12,2 C 83 % 1023,7 hPa 0,0 l/m 0 min 0 min 0 W/m 6,4 km/h (2 Bft) 97,87 %
08.10.2023 03:48 16,7 C 15,6 C 12,2 C 83 % 1023,6 hPa 0,0 l/m 0 min 0 min 0 W/m 6,4 km/h (2 Bft) 100,00 %
08.10.2023 03:50 16,6 C 15,6 C 12,2 C 84 % 1023,5 hPa 0,0 l/m 0 min 0 min 0 W/m 9,7 km/h (2 Bft) 100,00 %
08.10.2023 03:52 16,6 C 15,6 C 12,2 C 84 % 1023,5 hPa 0,0 l/m 0 min 0 min 0 W/m 6,4 km/h (2 Bft) 100,00 %
08.10.2023 03:54 16,6 C 15,6 C 12,2 C 84 % 1023,6 hPa 0,0 l/m 0 min 0 min 0 W/m 6,4 km/h (2 Bft) 100,00 %
08.10.2023 03:56 16,6 C 15,6 C 12,2 C 84 % 1023,7 hPa 0,0 l/m 0 min 0 min 0 W/m 6,4 km/h (2 Bft) 100,00 %
08.10.2023 03:58 16,5 C 15,6 C 11,7 C 84 % 1023,6 hPa 0,0 l/m 0 min 0 min 0 W/m 3,2 km/h (1 Bft) 100,00 %
08.10.2023 04:00 16,5 C 15,6 C 11,7 C 84 % 1023,6 hPa 0,0 l/m 0 min 0 min 0 W/m 3,2 km/h (1 Bft) 100,00 %
08.10.2023 04:02 16,4 C 15,6 C 11,7 C 84 % 1023,7 hPa 0,0 l/m 0 min 0 min 0 W/m 12,9 km/h (3 Bft) 100,00 %
08.10.2023 04:04 16,4 C 15,6 C 11,7 C 84 % 1023,6 hPa 0,0 l/m 0 min 0 min 0 W/m 6,4 km/h (2 Bft) 97,83 %
08.10.2023 04:06 16,4 C 15,6 C 11,7 C 84 % 1023,7 hPa 0,0 l/m 0 min 0 min 0 W/m 3,2 km/h (1 Bft) 100,00 %
08.10.2023 04:08 16,4 C 15,6 C 11,7 C 84 % 1023,6 hPa 0,0 l/m 0 min 0 min 0 W/m 3,2 km/h (1 Bft) 100,00 %
08.10.2023 04:10 16,3 C 15,6 C 11,7 C 84 % 1023,6 hPa 0,0 l/m 0 min 0 min 0 W/m 6,4 km/h (2 Bft) 100,00 %
08.10.2023 04:12 16,3 C 15,6 C 11,7 C 84 % 1023,7 hPa 0,0 l/m 0 min 0 min 0 W/m 6,4 km/h (2 Bft) 100,00 %
08.10.2023 04:14 16,3 C 15,6 C 11,7 C 84 % 1023,6 hPa 0,0 l/m 0 min 0 min 0 W/m 3,2 km/h (1 Bft) 100,00 %
08.10.2023 04:16 16,3 C 15,6 C 11,7 C 84 % 1023,6 hPa 0,0 l/m 0 min 0 min 0 W/m 3,2 km/h (1 Bft) 97,87 %
08.10.2023 04:18 16,3 C 15,6 C 11,7 C 84 % 1023,6 hPa 0,0 l/m 0 min 0 min 0 W/m 6,4 km/h (2 Bft) 100,00 %
08.10.2023 04:20 16,3 C 15,6 C 11,7 C 83 % 1023,6 hPa 0,0 l/m 0 min 0 min 0 W/m 6,4 km/h (2 Bft) 100,00 %
08.10.2023 04:22 16,3 C 15,6 C 11,7 C 83 % 1023,6 hPa 0,0 l/m 0 min 0 min 0 W/m 3,2 km/h (1 Bft) 100,00 %
08.10.2023 04:24 16,3 C 15,6 C 11,7 C 83 % 1023,6 hPa 0,0 l/m 0 min 0 min 0 W/m 6,4 km/h (2 Bft) 100,00 %
08.10.2023 04:26 16,2 C 15,6 C 11,7 C 83 % 1023,6 hPa 0,0 l/m 0 min 0 min 0 W/m 3,2 km/h (1 Bft) 95,74 %
08.10.2023 04:28 16,2 C 15,6 C 11,7 C 83 % 1023,6 hPa 0,0 l/m 0 min 0 min 0 W/m 9,7 km/h (2 Bft) 97,87 %
08.10.2023 04:30 16,2 C 15,6 C 11,7 C 83 % 1023,6 hPa 0,0 l/m 0 min 0 min 0 W/m 3,2 km/h (1 Bft) 100,00 %
08.10.2023 04:32 16,2 C 15,6 C 11,7 C 84 % 1023,5 hPa 0,0 l/m 0 min 0 min 0 W/m 6,4 km/h (2 Bft) 97,87 %
08.10.2023 04:34 16,2 C 15,6 C 11,7 C 84 % 1023,6 hPa 0,0 l/m 0 min 0 min 0 W/m 3,2 km/h (1 Bft) 100,00 %
08.10.2023 04:36 16,2 C 15,6 C 11,7 C 84 % 1023,4 hPa 0,0 l/m 0 min 0 min 0 W/m 3,2 km/h (1 Bft) 100,00 %
08.10.2023 04:38 16,2 C 15,6 C 11,7 C 84 % 1023,5 hPa 0,0 l/m 0 min 0 min 0 W/m 3,2 km/h (1 Bft) 100,00 %
08.10.2023 04:40 16,2 C 15,6 C 11,7 C 84 % 1023,6 hPa 0,0 l/m 0 min 0 min 0 W/m 3,2 km/h (1 Bft) 100,00 %
08.10.2023 04:42 16,2 C 15,6 C 11,7 C 84 % 1023,6 hPa 0,0 l/m 0 min 0 min 0 W/m 0,0 km/h (0 Bft) 97,83 %
08.10.2023 04:44 16,2 C 15,0 C 11,7 C 84 % 1023,7 hPa 0,0 l/m 0 min 0 min 0 W/m 0,0 km/h (0 Bft) 100,00 %
08.10.2023 04:46 16,2 C 15,0 C 11,7 C 84 % 1023,7 hPa 0,0 l/m 0 min 0 min 0 W/m 6,4 km/h (2 Bft) 95,74 %
08.10.2023 04:48 16,2 C 15,0 C 11,7 C 84 % 1023,8 hPa 0,0 l/m 0 min 0 min 0 W/m 3,2 km/h (1 Bft) 97,87 %
08.10.2023 04:50 16,1 C 15,0 C 11,7 C 84 % 1023,8 hPa 0,0 l/m 0 min 0 min 0 W/m 6,4 km/h (2 Bft) 95,74 %
08.10.2023 04:52 16,1 C 15,6 C 11,7 C 84 % 1023,8 hPa 0,0 l/m 0 min 0 min 0 W/m 3,2 km/h (1 Bft) 97,87 %
08.10.2023 04:54 16,1 C 15,6 C 11,7 C 84 % 1023,8 hPa 0,0 l/m 0 min 0 min 0 W/m 6,4 km/h (2 Bft) 97,87 %
08.10.2023 04:56 16,1 C 15,6 C 11,7 C 84 % 1023,8 hPa 0,0 l/m 0 min 0 min 0 W/m 3,2 km/h (1 Bft) 95,74 %
08.10.2023 04:58 16,1 C 15,6 C 11,7 C 84 % 1023,8 hPa 0,0 l/m 0 min 0 min 0 W/m 6,4 km/h (2 Bft) 97,87 %
08.10.2023 05:00 16,1 C 15,6 C 11,7 C 84 % 1023,9 hPa 0,0 l/m 0 min 0 min 0 W/m 3,2 km/h (1 Bft) 93,48 %
08.10.2023 05:02 16,1 C 15,6 C 11,7 C 84 % 1023,9 hPa 0,0 l/m 0 min 0 min 0 W/m 9,7 km/h (2 Bft) 93,62 %
08.10.2023 05:04 16,1 C 15,6 C 11,7 C 84 % 1023,9 hPa 0,0 l/m 0 min 0 min 0 W/m 6,4 km/h (2 Bft) 95,92 %
08.10.2023 05:06 16,1 C 15,6 C 11,7 C 84 % 1023,9 hPa 0,0 l/m 0 min 0 min 0 W/m 6,4 km/h (2 Bft) 95,74 %
08.10.2023 05:08 16,1 C 15,6 C 11,7 C 84 % 1023,9 hPa 0,0 l/m 0 min 0 min 0 W/m 3,2 km/h (1 Bft) 95,74 %
08.10.2023 05:10 16,1 C 15,0 C 11,7 C 84 % 1024,0 hPa 0,0 l/m 0 min 0 min 0 W/m 0,0 km/h (0 Bft) 95,74 %
08.10.2023 05:12 16,1 C 15,0 C 11,7 C 84 % 1024,0 hPa 0,0 l/m 0 min 0 min 0 W/m 0,0 km/h (0 Bft) 95,74 %
08.10.2023 05:14 16,1 C 15,0 C 11,7 C 84 % 1024,0 hPa 0,0 l/m 0 min 0 min 0 W/m 6,4 km/h (2 Bft) 95,74 %
08.10.2023 05:16 16,1 C 15,0 C 11,7 C 84 % 1024,1 hPa 0,0 l/m 0 min 0 min 0 W/m 3,2 km/h (1 Bft) 95,74 %
08.10.2023 05:18 16,1 C 15,0 C 11,7 C 84 % 1024,0 hPa 0,0 l/m 0 min 0 min 0 W/m 3,2 km/h (1 Bft) 97,83 %
08.10.2023 05:20 16,1 C 15,0 C 11,7 C 84 % 1024,0 hPa 0,0 l/m 0 min 0 min 0 W/m 12,9 km/h (3 Bft) 97,87 %
08.10.2023 05:22 16,1 C 15,0 C 11,7 C 84 % 1023,9 hPa 0,0 l/m 0 min 0 min 0 W/m 6,4 km/h (2 Bft) 97,87 %
08.10.2023 05:24 16,1 C 15,0 C 11,7 C 84 % 1023,7 hPa 0,0 l/m 0 min 0 min 0 W/m 6,4 km/h (2 Bft) 97,87 %
08.10.2023 05:26 16,1 C 15,0 C 11,7 C 84 % 1023,8 hPa 0,0 l/m 0 min 0 min 0 W/m 6,4 km/h (2 Bft) 93,62 %
08.10.2023 05:28 16,1 C 15,0 C 11,7 C 84 % 1024,0 hPa 0,0 l/m 0 min 0 min 0 W/m 6,4 km/h (2 Bft) 97,87 %
08.10.2023 05:30 16,0 C 15,0 C 11,7 C 84 % 1024,1 hPa 0,0 l/m 0 min 0 min 0 W/m 12,9 km/h (3 Bft) 95,74 %
08.10.2023 05:32 16,0 C 15,0 C 11,7 C 84 % 1024,1 hPa 0,0 l/m 0 min 0 min 0 W/m 3,2 km/h (1 Bft) 93,62 %
08.10.2023 05:34 16,0 C 15,0 C 11,7 C 84 % 1024,1 hPa 0,0 l/m 0 min 0 min 0 W/m 3,2 km/h (1 Bft) 95,74 %
08.10.2023 05:36 16,0 C 15,0 C 11,7 C 84 % 1024,1 hPa 0,0 l/m 0 min 0 min 0 W/m 6,4 km/h (2 Bft) 93,62 %
08.10.2023 05:38 16,0 C 15,0 C 11,7 C 84 % 1024,2 hPa 0,0 l/m 0 min 0 min 0 W/m 6,4 km/h (2 Bft) 95,65 %
08.10.2023 05:40 15,9 C 15,0 C 11,7 C 84 % 1024,1 hPa 0,0 l/m 0 min 0 min 0 W/m 3,2 km/h (1 Bft) 95,74 %
08.10.2023 05:42 15,9 C 15,0 C 11,7 C 84 % 1024,1 hPa 0,0 l/m 0 min 0 min 0 W/m 6,4 km/h (2 Bft) 95,74 %
08.10.2023 05:44 15,9 C 15,0 C 11,7 C 84 % 1023,9 hPa 0,0 l/m 0 min 0 min 0 W/m 6,4 km/h (2 Bft) 97,87 %
08.10.2023 05:46 15,9 C 15,0 C 11,7 C 84 % 1023,8 hPa 0,0 l/m 0 min 0 min 0 W/m 12,9 km/h (3 Bft) 97,87 %
08.10.2023 05:48 15,9 C 15,0 C 11,7 C 84 % 1023,9 hPa 0,0 l/m 0 min 0 min 0 W/m 3,2 km/h (1 Bft) 97,87 %
08.10.2023 05:50 15,9 C 15,0 C 11,7 C 83 % 1023,9 hPa 0,0 l/m 0 min 0 min 0 W/m 9,7 km/h (2 Bft) 95,74 %
08.10.2023 05:52 15,9 C 15,0 C 11,7 C 83 % 1023,9 hPa 0,0 l/m 0 min 0 min 0 W/m 6,4 km/h (2 Bft) 95,74 %
08.10.2023 05:54 15,9 C 15,0 C 11,7 C 83 % 1024,1 hPa 0,0 l/m 0 min 0 min 0 W/m 9,7 km/h (2 Bft) 97,87 %
08.10.2023 05:56 15,9 C 15,0 C 11,7 C 83 % 1024,1 hPa 0,0 l/m 0 min 0 min 0 W/m 9,7 km/h (2 Bft) 97,87 %
08.10.2023 05:58 15,9 C 15,0 C 11,7 C 83 % 1024,0 hPa 0,0 l/m 0 min 0 min 0 W/m 3,2 km/h (1 Bft) 97,87 %
08.10.2023 06:00 15,9 C 15,0 C 11,7 C 83 % 1024,0 hPa 0,0 l/m 0 min 0 min 0 W/m 3,2 km/h (1 Bft) 97,83 %
08.10.2023 06:02 15,8 C 15,0 C 11,7 C 83 % 1024,0 hPa 0,0 l/m 0 min 0 min 0 W/m 3,2 km/h (1 Bft) 97,87 %
08.10.2023 06:04 15,9 C 15,0 C 11,7 C 83 % 1023,9 hPa 0,0 l/m 0 min 0 min 0 W/m 6,4 km/h (2 Bft) 97,92 %
08.10.2023 06:08 15,8 C 15,0 C 11,7 C 83 % 1023,8 hPa 0,0 l/m 0 min 0 min 0 W/m 12,9 km/h (3 Bft) 97,59 %
08.10.2023 06:10 15,8 C 15,0 C 11,7 C 83 % 1023,9 hPa 0,0 l/m 0 min 0 min 0 W/m 12,9 km/h (3 Bft) 95,74 %
08.10.2023 06:12 15,8 C 15,0 C 11,7 C 83 % 1024,0 hPa 0,0 l/m 0 min 0 min 0 W/m 12,9 km/h (3 Bft) 97,87 %
08.10.2023 06:14 15,8 C 15,0 C 11,7 C 83 % 1023,9 hPa 0,0 l/m 0 min 0 min 0 W/m 6,4 km/h (2 Bft) 97,87 %
08.10.2023 06:16 15,8 C 15,0 C 11,7 C 83 % 1023,8 hPa 0,0 l/m 0 min 0 min 0 W/m 6,4 km/h (2 Bft) 97,87 %
08.10.2023 06:18 15,8 C 15,0 C 11,7 C 83 % 1023,8 hPa 0,0 l/m 0 min 0 min 0 W/m 6,4 km/h (2 Bft) 100,00 %
08.10.2023 06:20 15,8 C 15,0 C 11,1 C 83 % 1023,8 hPa 0,0 l/m 0 min 0 min 0 W/m 9,7 km/h (2 Bft) 97,87 %
08.10.2023 06:22 15,7 C 15,0 C 11,1 C 83 % 1023,9 hPa 0,0 l/m 0 min 0 min 0 W/m 12,9 km/h (3 Bft) 100,00 %
08.10.2023 06:24 15,8 C 15,0 C 11,1 C 83 % 1024,1 hPa 0,0 l/m 0 min 0 min 0 W/m 3,2 km/h (1 Bft) 100,00 %
08.10.2023 06:26 15,7 C 15,0 C 11,1 C 83 % 1024,2 hPa 0,0 l/m 0 min 0 min 0 W/m 6,4 km/h (2 Bft) 100,00 %
08.10.2023 06:28 15,7 C 15,0 C 11,1 C 83 % 1024,3 hPa 0,0 l/m 0 min 0 min 0 W/m 9,7 km/h (2 Bft) 95,74 %
08.10.2023 06:30 15,7 C 15,0 C 11,1 C 83 % 1024,4 hPa 0,0 l/m 0 min 0 min 0 W/m 9,7 km/h (2 Bft) 100,00 %
08.10.2023 06:32 15,7 C 15,0 C 11,1 C 83 % 1024,4 hPa 0,0 l/m 0 min 0 min 0 W/m 6,4 km/h (2 Bft) 100,00 %
08.10.2023 06:34 15,7 C 15,0 C 11,1 C 83 % 1024,3 hPa 0,0 l/m 0 min 0 min 0 W/m 6,4 km/h (2 Bft) 100,00 %
08.10.2023 06:36 15,7 C 14,4 C 11,1 C 83 % 1024,3 hPa 0,0 l/m 0 min 0 min 0 W/m 6,4 km/h (2 Bft) 97,87 %
08.10.2023 06:38 15,7 C 14,4 C 11,1 C 83 % 1024,2 hPa 0,0 l/m 0 min 0 min 0 W/m 6,4 km/h (2 Bft) 97,87 %
08.10.2023 06:40 15,6 C 14,4 C 11,1 C 83 % 1024,2 hPa 0,0 l/m 0 min 0 min 0 W/m 3,2 km/h (1 Bft) 97,87 %
08.10.2023 06:42 15,6 C 14,4 C 11,1 C 83 % 1024,2 hPa 0,0 l/m 0 min 0 min 0 W/m 6,4 km/h (2 Bft) 97,83 %
08.10.2023 06:44 15,6 C 14,4 C 11,1 C 83 % 1024,1 hPa 0,0 l/m 0 min 0 min 0 W/m 6,4 km/h (2 Bft) 97,87 %
08.10.2023 06:46 15,6 C 14,4 C 11,1 C 84 % 1024,1 hPa 0,0 l/m 0 min 0 min 0 W/m 3,2 km/h (1 Bft) 97,87 %
08.10.2023 06:48 15,6 C 14,4 C 11,1 C 83 % 1024,1 hPa 0,0 l/m 0 min 0 min 0 W/m 6,4 km/h (2 Bft) 97,87 %
08.10.2023 06:50 15,6 C 14,4 C 11,1 C 83 % 1024,2 hPa 0,0 l/m 0 min 0 min 0 W/m 3,2 km/h (1 Bft) 97,87 %
08.10.2023 06:52 15,6 C 14,4 C 11,1 C 83 % 1024,3 hPa 0,0 l/m 0 min 0 min 0 W/m 3,2 km/h (1 Bft) 95,74 %
08.10.2023 06:54 15,6 C 14,4 C 11,1 C 84 % 1024,2 hPa 0,0 l/m 0 min 0 min 0 W/m 3,2 km/h (1 Bft) 97,87 %
08.10.2023 06:56 15,6 C 14,4 C 11,1 C 83 % 1024,1 hPa 0,0 l/m 0 min 0 min 0 W/m 12,9 km/h (3 Bft) 97,87 %
08.10.2023 06:58 15,5 C 14,4 C 11,1 C 84 % 1024,0 hPa 0,0 l/m 0 min 0 min 0 W/m 6,4 km/h (2 Bft) 97,87 %
08.10.2023 07:00 15,5 C 14,4 C 11,1 C 84 % 1024,0 hPa 0,0 l/m 0 min 0 min 0 W/m 6,4 km/h (2 Bft) 97,83 %
08.10.2023 07:02 15,5 C 14,4 C 11,1 C 84 % 1024,1 hPa 0,0 l/m 0 min 0 min 0 W/m 6,4 km/h (2 Bft) 95,74 %
08.10.2023 07:04 15,5 C 14,4 C 11,1 C 84 % 1024,2 hPa 0,0 l/m 0 min 0 min 0 W/m 6,4 km/h (2 Bft) 97,96 %
08.10.2023 07:06 15,5 C 14,4 C 11,1 C 84 % 1024,2 hPa 0,0 l/m 0 min 0 min 0 W/m 3,2 km/h (1 Bft) 97,87 %
08.10.2023 07:08 15,5 C 14,4 C 11,1 C 84 % 1024,3 hPa 0,0 l/m 0 min 0 min 0 W/m 6,4 km/h (2 Bft) 100,00 %
08.10.2023 07:10 15,4 C 14,4 C 11,1 C 84 % 1024,4 hPa 0,0 l/m 0 min 0 min 0 W/m 6,4 km/h (2 Bft) 100,00 %
08.10.2023 07:12 15,4 C 14,4 C 11,1 C 84 % 1024,4 hPa 0,0 l/m 0 min 0 min 0 W/m 6,4 km/h (2 Bft) 100,00 %
08.10.2023 07:14 15,4 C 14,4 C 11,1 C 84 % 1024,4 hPa 0,0 l/m 0 min 0 min 0 W/m 6,4 km/h (2 Bft) 100,00 %
08.10.2023 07:16 15,4 C 14,4 C 11,1 C 84 % 1024,5 hPa 0,0 l/m 0 min 0 min 0 W/m 0,0 km/h (0 Bft) 97,87 %
08.10.2023 07:18 15,4 C 14,4 C 11,1 C 84 % 1024,6 hPa 0,0 l/m 0 min 2 min 0 W/m 9,7 km/h (2 Bft) 97,67 %
08.10.2023 07:20 15,4 C 14,4 C 11,1 C 84 % 1024,7 hPa 0,0 l/m 0 min 0 min 0 W/m 9,7 km/h (2 Bft) 100,00 %
08.10.2023 07:22 15,4 C 14,4 C 11,1 C 84 % 1024,7 hPa 0,0 l/m 0 min 0 min 0 W/m 6,4 km/h (2 Bft) 100,00 %
08.10.2023 07:24 15,4 C 14,4 C 11,1 C 84 % 1024,7 hPa 0,0 l/m 0 min 0 min 0 W/m 3,2 km/h (1 Bft) 100,00 %
08.10.2023 07:26 15,4 C 14,4 C 11,1 C 84 % 1024,7 hPa 0,0 l/m 0 min 0 min 0 W/m 3,2 km/h (1 Bft) 100,00 %
08.10.2023 07:28 15,4 C 14,4 C 11,1 C 84 % 1024,7 hPa 0,0 l/m 0 min 2 min 0 W/m 3,2 km/h (1 Bft) 97,87 %
08.10.2023 07:30 15,4 C 14,4 C 11,1 C 84 % 1024,7 hPa 0,0 l/m 0 min 0 min 0 W/m 3,2 km/h (1 Bft) 100,00 %
08.10.2023 07:32 15,3 C 14,4 C 11,1 C 84 % 1024,7 hPa 0,0 l/m 0 min 0 min 0 W/m 6,4 km/h (2 Bft) 100,00 %
08.10.2023 07:34 15,3 C 14,4 C 11,1 C 84 % 1024,8 hPa 0,0 l/m 0 min 0 min 0 W/m 3,2 km/h (1 Bft) 97,87 %
08.10.2023 07:36 15,3 C 14,4 C 11,1 C 84 % 1024,8 hPa 0,0 l/m 0 min 0 min 0 W/m 6,4 km/h (2 Bft) 97,87 %
08.10.2023 07:38 15,3 C 14,4 C 11,1 C 84 % 1024,8 hPa 0,0 l/m 0 min 0 min 0 W/m 6,4 km/h (2 Bft) 97,87 %
08.10.2023 07:40 15,3 C 14,4 C 11,1 C 84 % 1024,9 hPa 0,0 l/m 0 min 0 min 0 W/m 3,2 km/h (1 Bft) 97,83 %
08.10.2023 07:42 15,3 C 14,4 C 11,1 C 85 % 1024,9 hPa 0,0 l/m 0 min 0 min 0 W/m 3,2 km/h (1 Bft) 97,87 %
08.10.2023 07:44 15,3 C 14,4 C 11,1 C 85 % 1024,9 hPa 0,0 l/m 0 min 0 min 0 W/m 6,4 km/h (2 Bft) 97,87 %
08.10.2023 07:46 15,3 C 14,4 C 11,1 C 85 % 1024,9 hPa 0,0 l/m 0 min 0 min 0 W/m 6,4 km/h (2 Bft) 97,87 %
08.10.2023 07:48 15,3 C 14,4 C 11,1 C 85 % 1024,8 hPa 0,0 l/m 0 min 0 min 0 W/m 3,2 km/h (1 Bft) 93,62 %
08.10.2023 07:50 15,2 C 14,4 C 11,1 C 85 % 1024,9 hPa 0,0 l/m 0 min 0 min 0 W/m 3,2 km/h (1 Bft) 97,87 %
08.10.2023 07:52 15,2 C 14,4 C 11,1 C 85 % 1024,8 hPa 0,0 l/m 0 min 0 min 0 W/m 3,2 km/h (1 Bft) 95,74 %
08.10.2023 07:54 15,2 C 14,4 C 11,1 C 85 % 1024,8 hPa 0,0 l/m 0 min 0 min 0 W/m 3,2 km/h (1 Bft) 95,74 %
08.10.2023 07:56 15,2 C 14,4 C 11,1 C 85 % 1024,7 hPa 0,0 l/m 0 min 0 min 0 W/m 3,2 km/h (1 Bft) 95,74 %
08.10.2023 07:58 15,2 C 14,4 C 11,1 C 85 % 1024,7 hPa 0,0 l/m 0 min 0 min 0 W/m 6,4 km/h (2 Bft) 97,83 %
08.10.2023 08:00 15,2 C 14,4 C 11,1 C 85 % 1024,6 hPa 0,0 l/m 0 min 0 min 1 W/m 3,2 km/h (1 Bft) 95,74 %
08.10.2023 08:02 15,2 C 14,4 C 11,1 C 85 % 1024,4 hPa 0,0 l/m 0 min 0 min 5 W/m 3,2 km/h (1 Bft) 95,74 %
08.10.2023 08:04 15,2 C 14,4 C 11,1 C 85 % 1024,3 hPa 0,0 l/m 0 min 0 min 6 W/m 3,2 km/h (1 Bft) 95,92 %
08.10.2023 08:06 15,2 C 14,4 C 11,1 C 85 % 1024,4 hPa 0,0 l/m 0 min 0 min 7 W/m 12,9 km/h (3 Bft) 95,74 %
08.10.2023 08:08 15,1 C 14,4 C 11,1 C 85 % 1024,4 hPa 0,0 l/m 0 min 0 min 11 W/m 6,4 km/h (2 Bft) 97,87 %
08.10.2023 08:10 15,2 C 14,4 C 11,1 C 85 % 1024,4 hPa 0,0 l/m 0 min 0 min 12 W/m 3,2 km/h (1 Bft) 97,87 %
08.10.2023 08:12 15,1 C 14,4 C 11,1 C 85 % 1024,4 hPa 0,0 l/m 0 min 0 min 14 W/m 3,2 km/h (1 Bft) 95,74 %
08.10.2023 08:14 15,1 C 14,4 C 11,1 C 85 % 1024,4 hPa 0,0 l/m 0 min 0 min 16 W/m 9,7 km/h (2 Bft) 97,87 %
08.10.2023 08:16 15,1 C 14,4 C 11,1 C 85 % 1024,5 hPa 0,0 l/m 0 min 0 min 16 W/m 3,2 km/h (1 Bft) 95,74 %
08.10.2023 08:18 15,1 C 14,4 C 11,1 C 85 % 1024,6 hPa 0,0 l/m 0 min 0 min 16 W/m 6,4 km/h (2 Bft) 97,83 %
08.10.2023 08:20 15,1 C 14,4 C 11,1 C 85 % 1024,7 hPa 0,0 l/m 0 min 0 min 15 W/m 3,2 km/h (1 Bft) 100,00 %
08.10.2023 08:22 15,1 C 14,4 C 11,1 C 85 % 1024,7 hPa 0,0 l/m 0 min 0 min 14 W/m 3,2 km/h (1 Bft) 97,87 %
08.10.2023 08:24 15,2 C 14,4 C 11,1 C 85 % 1024,7 hPa 0,0 l/m 0 min 0 min 14 W/m 3,2 km/h (1 Bft) 97,87 %
08.10.2023 08:26 15,1 C 14,4 C 11,1 C 85 % 1024,7 hPa 0,0 l/m 0 min 0 min 16 W/m 6,4 km/h (2 Bft) 95,74 %
08.10.2023 08:28 15,2 C 14,4 C 11,1 C 85 % 1024,9 hPa 0,0 l/m 0 min 0 min 18 W/m 6,4 km/h (2 Bft) 93,62 %
08.10.2023 08:30 15,2 C 14,4 C 11,1 C 85 % 1025,0 hPa 0,0 l/m 0 min 0 min 22 W/m 6,4 km/h (2 Bft) 95,74 %
08.10.2023 08:32 15,2 C 14,4 C 11,1 C 85 % 1025,0 hPa 0,0 l/m 0 min 0 min 24 W/m 3,2 km/h (1 Bft) 91,49 %
08.10.2023 08:34 15,1 C 14,4 C 11,1 C 85 % 1025,0 hPa 0,0 l/m 0 min 0 min 25 W/m 3,2 km/h (1 Bft) 94,29 %
08.10.2023 08:36 15,2 C 14,4 C 11,1 C 85 % 1024,9 hPa 0,0 l/m 0 min 0 min 24 W/m 3,2 km/h (1 Bft) 93,62 %
08.10.2023 08:38 15,2 C 14,4 C 11,1 C 85 % 1024,8 hPa 0,0 l/m 0 min 0 min 27 W/m 6,4 km/h (2 Bft) 95,74 %
08.10.2023 08:40 15,2 C 14,4 C 11,1 C 85 % 1024,8 hPa 0,0 l/m 0 min 0 min 32 W/m 3,2 km/h (1 Bft) 95,74 %
08.10.2023 08:42 15,2 C 14,4 C 11,1 C 85 % 1024,8 hPa 0,0 l/m 0 min 0 min 35 W/m 9,7 km/h (2 Bft) 95,74 %
08.10.2023 08:44 15,2 C 14,4 C 11,1 C 85 % 1024,8 hPa 0,0 l/m 0 min 0 min 40 W/m 3,2 km/h (1 Bft) 93,48 %
08.10.2023 08:46 15,2 C 14,4 C 11,1 C 85 % 1024,9 hPa 0,0 l/m 0 min 0 min 45 W/m 9,7 km/h (2 Bft) 95,74 %
08.10.2023 08:48 15,2 C 14,4 C 11,1 C 85 % 1024,9 hPa 0,0 l/m 0 min 0 min 48 W/m 0,0 km/h (0 Bft) 91,49 %
08.10.2023 08:50 15,2 C 14,4 C 11,1 C 86 % 1024,9 hPa 0,0 l/m 0 min 0 min 48 W/m 0,0 km/h (0 Bft) 93,62 %
08.10.2023 08:52 15,2 C 14,4 C 11,1 C 86 % 1024,9 hPa 0,0 l/m 0 min 0 min 45 W/m 0,0 km/h (0 Bft) 95,74 %
08.10.2023 08:54 15,2 C 14,4 C 11,1 C 86 % 1024,9 hPa 0,0 l/m 0 min 0 min 40 W/m 0,0 km/h (0 Bft) 93,62 %
08.10.2023 08:56 15,2 C 14,4 C 11,1 C 86 % 1024,9 hPa 0,0 l/m 0 min 0 min 39 W/m 0,0 km/h (0 Bft) 95,74 %
08.10.2023 08:58 15,2 C 14,4 C 11,1 C 86 % 1024,9 hPa 0,0 l/m 0 min 0 min 39 W/m 0,0 km/h (0 Bft) 95,74 %
08.10.2023 09:00 15,2 C 14,4 C 11,1 C 85 % 1024,9 hPa 0,0 l/m 0 min 0 min 42 W/m 0,0 km/h (0 Bft) 95,74 %
08.10.2023 09:02 15,2 C 14,4 C 11,1 C 86 % 1024,8 hPa 0,0 l/m 0 min 0 min 48 W/m 0,0 km/h (0 Bft) 95,74 %
08.10.2023 09:04 15,2 C 14,4 C 11,1 C 86 % 1024,8 hPa 0,0 l/m 0 min 0 min 52 W/m 0,0 km/h (0 Bft) 95,83 %
08.10.2023 09:06 15,2 C 14,4 C 11,1 C 85 % 1024,9 hPa 0,0 l/m 0 min 0 min 58 W/m 6,4 km/h (2 Bft) 93,62 %
08.10.2023 09:08 15,2 C 14,4 C 11,1 C 85 % 1024,9 hPa 0,0 l/m 0 min 0 min 64 W/m 3,2 km/h (1 Bft) 97,87 %
08.10.2023 09:10 15,2 C 15,0 C 11,1 C 86 % 1025,1 hPa 0,0 l/m 0 min 0 min 66 W/m 6,4 km/h (2 Bft) 97,87 %
08.10.2023 09:12 15,3 C 15,0 C 11,1 C 86 % 1025,2 hPa 0,0 l/m 0 min 0 min 59 W/m 3,2 km/h (1 Bft) 97,87 %
08.10.2023 09:14 15,3 C 15,0 C 11,1 C 86 % 1025,3 hPa 0,0 l/m 0 min 0 min 59 W/m 9,7 km/h (2 Bft) 100,00 %
08.10.2023 09:16 15,3 C 15,0 C 11,1 C 86 % 1025,3 hPa 0,0 l/m 0 min 0 min 65 W/m 6,4 km/h (2 Bft) 100,00 %
08.10.2023 09:18 15,3 C 15,0 C 11,1 C 86 % 1025,2 hPa 0,0 l/m 0 min 0 min 68 W/m 6,4 km/h (2 Bft) 97,87 %
08.10.2023 09:20 15,3 C 15,0 C 11,1 C 86 % 1025,1 hPa 0,0 l/m 0 min 0 min 69 W/m 6,4 km/h (2 Bft) 97,87 %
08.10.2023 09:22 15,3 C 15,0 C 11,1 C 86 % 1025,1 hPa 0,0 l/m 0 min 0 min 70 W/m 3,2 km/h (1 Bft) 100,00 %
08.10.2023 09:24 15,3 C 15,0 C 11,1 C 86 % 1025,2 hPa 0,0 l/m 0 min 0 min 71 W/m 6,4 km/h (2 Bft) 100,00 %
08.10.2023 09:26 15,3 C 15,0 C 11,1 C 86 % 1025,2 hPa 0,0 l/m 0 min 0 min 69 W/m 3,2 km/h (1 Bft) 100,00 %
08.10.2023 09:28 15,4 C 15,0 C 11,1 C 86 % 1025,3 hPa 0,0 l/m 0 min 0 min 72 W/m 3,2 km/h (1 Bft) 97,87 %
08.10.2023 09:30 15,4 C 15,0 C 11,1 C 86 % 1025,4 hPa 0,0 l/m 0 min 0 min 75 W/m 6,4 km/h (2 Bft) 100,00 %
08.10.2023 09:32 15,4 C 15,0 C 11,7 C 86 % 1025,5 hPa 0,0 l/m 0 min 0 min 77 W/m 6,4 km/h (2 Bft) 100,00 %
08.10.2023 09:34 15,4 C 15,0 C 11,7 C 86 % 1025,5 hPa 0,0 l/m 0 min 0 min 74 W/m 6,4 km/h (2 Bft) 100,00 %
08.10.2023 09:36 15,4 C 15,0 C 11,7 C 86 % 1025,5 hPa 0,0 l/m 0 min 0 min 70 W/m 6,4 km/h (2 Bft) 97,87 %
08.10.2023 09:38 15,4 C 15,0 C 11,1 C 86 % 1025,4 hPa 0,0 l/m 0 min 0 min 65 W/m 6,4 km/h (2 Bft) 100,00 %
08.10.2023 09:40 15,4 C 15,0 C 11,1 C 86 % 1025,5 hPa 0,0 l/m 0 min 0 min 61 W/m 3,2 km/h (1 Bft) 97,87 %
08.10.2023 09:42 15,5 C 15,0 C 11,7 C 86 % 1025,5 hPa 0,0 l/m 0 min 0 min 53 W/m 6,4 km/h (2 Bft) 100,00 %
08.10.2023 09:44 15,5 C 15,0 C 11,1 C 86 % 1025,5 hPa 0,0 l/m 0 min 0 min 49 W/m 6,4 km/h (2 Bft) 100,00 %
08.10.2023 09:46 15,5 C 15,0 C 11,1 C 86 % 1025,5 hPa 0,0 l/m 0 min 0 min 50 W/m 9,7 km/h (2 Bft) 100,00 %
08.10.2023 09:48 15,5 C 15,0 C 11,1 C 86 % 1025,6 hPa 0,0 l/m 0 min 0 min 60 W/m 6,4 km/h (2 Bft) 97,87 %
08.10.2023 09:50 15,6 C 15,0 C 11,7 C 86 % 1025,5 hPa 0,0 l/m 0 min 0 min 76 W/m 3,2 km/h (1 Bft) 100,00 %
08.10.2023 09:52 15,6 C 15,0 C 11,7 C 86 % 1025,5 hPa 0,0 l/m 0 min 0 min 52 W/m 6,4 km/h (2 Bft) 97,87 %
08.10.2023 09:54 15,6 C 15,0 C 11,7 C 86 % 1025,5 hPa 0,0 l/m 0 min 0 min 42 W/m 3,2 km/h (1 Bft) 97,87 %
08.10.2023 09:56 15,6 C 15,0 C 11,7 C 86 % 1025,5 hPa 0,0 l/m 0 min 0 min 63 W/m 6,4 km/h (2 Bft) 100,00 %
08.10.2023 09:58 15,6 C 15,0 C 11,7 C 86 % 1025,5 hPa 0,0 l/m 0 min 0 min 78 W/m 9,7 km/h (2 Bft) 100,00 %
08.10.2023 10:00 15,6 C 15,0 C 11,7 C 86 % 1025,6 hPa 0,0 l/m 0 min 0 min 87 W/m 3,2 km/h (1 Bft) 97,87 %
08.10.2023 10:02 15,6 C 15,6 C 11,7 C 86 % 1025,6 hPa 0,0 l/m 0 min 0 min 87 W/m 3,2 km/h (1 Bft) 100,00 %
08.10.2023 10:04 15,6 C 15,6 C 11,7 C 86 % 1025,6 hPa 0,0 l/m 0 min 0 min 86 W/m 3,2 km/h (1 Bft) 97,96 %
08.10.2023 10:06 15,6 C 15,6 C 11,7 C 86 % 1025,6 hPa 0,0 l/m 0 min 0 min 84 W/m 0,0 km/h (0 Bft) 100,00 %
08.10.2023 10:08 15,6 C 15,6 C 11,7 C 86 % 1025,7 hPa 0,0 l/m 0 min 0 min 84 W/m 6,4 km/h (2 Bft) 100,00 %
08.10.2023 10:10 15,7 C 15,6 C 11,7 C 86 % 1025,6 hPa 0,0 l/m 0 min 0 min 86 W/m 3,2 km/h (1 Bft) 100,00 %
08.10.2023 10:12 15,7 C 15,6 C 11,7 C 86 % 1025,7 hPa 0,0 l/m 0 min 0 min 91 W/m 3,2 km/h (1 Bft) 97,87 %
08.10.2023 10:14 15,7 C 15,6 C 11,7 C 86 % 1025,6 hPa 0,0 l/m 0 min 0 min 92 W/m 3,2 km/h (1 Bft) 97,87 %
08.10.2023 10:16 15,7 C 15,6 C 11,7 C 86 % 1025,7 hPa 0,0 l/m 0 min 0 min 93 W/m 3,2 km/h (1 Bft) 97,87 %
08.10.2023 10:18 15,7 C 15,6 C 11,7 C 86 % 1025,7 hPa 0,0 l/m 0 min 0 min 89 W/m 3,2 km/h (1 Bft) 95,74 %
08.10.2023 10:20 15,8 C 15,6 C 11,7 C 86 % 1025,8 hPa 0,0 l/m 0 min 0 min 80 W/m 3,2 km/h (1 Bft) 95,65 %
08.10.2023 10:22 15,8 C 15,6 C 11,7 C 86 % 1025,9 hPa 0,0 l/m 0 min 0 min 78 W/m 9,7 km/h (2 Bft) 97,87 %
08.10.2023 10:24 15,8 C 15,6 C 11,7 C 86 % 1025,9 hPa 0,0 l/m 0 min 0 min 79 W/m 3,2 km/h (1 Bft) 95,74 %
08.10.2023 10:26 15,8 C 15,6 C 11,7 C 86 % 1026,0 hPa 0,0 l/m 0 min 0 min 76 W/m 3,2 km/h (1 Bft) 95,74 %
08.10.2023 10:28 15,8 C 15,6 C 11,7 C 86 % 1026,0 hPa 0,0 l/m 0 min 0 min 83 W/m 6,4 km/h (2 Bft) 93,62 %
08.10.2023 10:30 15,8 C 15,6 C 11,7 C 86 % 1026,0 hPa 0,0 l/m 0 min 0 min 93 W/m 6,4 km/h (2 Bft) 93,62 %
08.10.2023 10:32 15,8 C 15,6 C 11,7 C 86 % 1026,0 hPa 0,0 l/m 0 min 0 min 107 W/m 3,2 km/h (1 Bft) 95,74 %
08.10.2023 10:34 15,8 C 15,6 C 11,7 C 86 % 1026,0 hPa 0,0 l/m 0 min 0 min 126 W/m 3,2 km/h (1 Bft) 95,74 %
08.10.2023 10:36 15,9 C 15,6 C 11,7 C 86 % 1026,0 hPa 0,0 l/m 0 min 0 min 142 W/m 3,2 km/h (1 Bft) 95,74 %
08.10.2023 10:38 15,9 C 16,1 C 12,2 C 86 % 1026,0 hPa 0,0 l/m 0 min 0 min 138 W/m 3,2 km/h (1 Bft) 93,62 %
08.10.2023 10:40 15,9 C 16,1 C 12,2 C 86 % 1026,0 hPa 0,0 l/m 0 min 0 min 142 W/m 6,4 km/h (2 Bft) 97,87 %
08.10.2023 10:42 15,9 C 16,1 C 12,2 C 86 % 1025,9 hPa 0,0 l/m 0 min 0 min 144 W/m 3,2 km/h (1 Bft) 95,65 %
08.10.2023 10:44 16,0 C 16,1 C 12,2 C 86 % 1025,9 hPa 0,0 l/m 0 min 0 min 144 W/m 3,2 km/h (1 Bft) 95,74 %
08.10.2023 10:46 16,0 C 16,1 C 12,2 C 86 % 1025,9 hPa 0,0 l/m 0 min 0 min 152 W/m 6,4 km/h (2 Bft) 95,74 %
08.10.2023 10:48 16,1 C 16,1 C 12,2 C 86 % 1025,9 hPa 0,0 l/m 0 min 0 min 161 W/m 3,2 km/h (1 Bft) 93,62 %
08.10.2023 10:50 16,1 C 16,1 C 12,2 C 86 % 1025,9 hPa 0,0 l/m 0 min 0 min 161 W/m 6,4 km/h (2 Bft) 93,62 %
08.10.2023 10:52 16,1 C 16,1 C 12,2 C 86 % 1025,9 hPa 0,0 l/m 0 min 0 min 155 W/m 3,2 km/h (1 Bft) 89,36 %
08.10.2023 10:54 16,2 C 16,7 C 12,2 C 86 % 1025,9 hPa 0,0 l/m 0 min 0 min 154 W/m 6,4 km/h (2 Bft) 95,74 %
08.10.2023 10:56 16,2 C 16,7 C 12,2 C 86 % 1025,9 hPa 0,0 l/m 0 min 0 min 166 W/m 3,2 km/h (1 Bft) 93,62 %
08.10.2023 10:58 16,2 C 16,7 C 12,8 C 86 % 1025,8 hPa 0,0 l/m 0 min 0 min 181 W/m 3,2 km/h (1 Bft) 95,74 %
08.10.2023 11:00 16,3 C 16,7 C 12,8 C 86 % 1025,9 hPa 0,0 l/m 0 min 0 min 186 W/m 3,2 km/h (1 Bft) 97,83 %
08.10.2023 11:02 16,3 C 16,7 C 12,8 C 86 % 1025,9 hPa 0,0 l/m 0 min 0 min 170 W/m 3,2 km/h (1 Bft) 97,87 %
08.10.2023 11:04 16,4 C 16,7 C 12,8 C 86 % 1025,9 hPa 0,0 l/m 0 min 0 min 171 W/m 3,2 km/h (1 Bft) 100,00 %
08.10.2023 11:06 16,4 C 16,7 C 12,8 C 86 % 1026,0 hPa 0,0 l/m 0 min 0 min 188 W/m 3,2 km/h (1 Bft) 100,00 %
08.10.2023 11:08 16,5 C 16,7 C 12,8 C 86 % 1026,0 hPa 0,0 l/m 0 min 0 min 186 W/m 9,7 km/h (2 Bft) 97,87 %
08.10.2023 11:10 16,5 C 16,7 C 12,8 C 86 % 1026,0 hPa 0,0 l/m 0 min 0 min 181 W/m 6,4 km/h (2 Bft) 97,87 %
08.10.2023 11:12 16,6 C 16,7 C 12,8 C 85 % 1026,0 hPa 0,0 l/m 0 min 0 min 190 W/m 3,2 km/h (1 Bft) 97,87 %
08.10.2023 11:14 16,6 C 16,7 C 12,8 C 86 % 1026,1 hPa 0,0 l/m 0 min 0 min 192 W/m 6,4 km/h (2 Bft) 97,87 %
08.10.2023 11:16 16,6 C 17,2 C 12,8 C 86 % 1026,1 hPa 0,0 l/m 0 min 0 min 194 W/m 6,4 km/h (2 Bft) 97,87 %
08.10.2023 11:18 16,7 C 17,2 C 12,8 C 86 % 1026,2 hPa 0,0 l/m 0 min 0 min 206 W/m 3,2 km/h (1 Bft) 97,83 %
08.10.2023 11:20 16,7 C 17,2 C 12,8 C 86 % 1026,2 hPa 0,0 l/m 0 min 0 min 219 W/m 6,4 km/h (2 Bft) 95,83 %
08.10.2023 11:22 16,8 C 17,2 C 12,8 C 86 % 1026,2 hPa 0,0 l/m 0 min 0 min 220 W/m 3,2 km/h (1 Bft) 97,83 %
08.10.2023 11:24 16,8 C 17,8 C 12,8 C 86 % 1026,2 hPa 0,0 l/m 2 min 0 min 246 W/m 12,9 km/h (3 Bft) 97,87 %
08.10.2023 11:26 16,9 C 17,8 C 12,8 C 85 % 1026,2 hPa 0,0 l/m 0 min 0 min 221 W/m 9,7 km/h (2 Bft) 95,74 %
08.10.2023 11:28 16,9 C 18,3 C 13,3 C 85 % 1026,2 hPa 0,0 l/m 2 min 0 min 264 W/m 6,4 km/h (2 Bft) 97,87 %
08.10.2023 11:30 17,0 C 18,3 C 13,3 C 85 % 1026,2 hPa 0,0 l/m 2 min 0 min 351 W/m 9,7 km/h (2 Bft) 97,87 %
08.10.2023 11:32 17,1 C 18,9 C 13,3 C 86 % 1026,3 hPa 0,0 l/m 2 min 0 min 247 W/m 3,2 km/h (1 Bft) 95,74 %
08.10.2023 11:34 17,2 C 18,3 C 13,3 C 85 % 1026,3 hPa 0,0 l/m 2 min 0 min 238 W/m 9,7 km/h (2 Bft) 97,87 %
08.10.2023 11:36 17,2 C 18,3 C 13,3 C 85 % 1026,3 hPa 0,0 l/m 0 min 0 min 219 W/m 9,7 km/h (2 Bft) 95,74 %
08.10.2023 11:38 17,3 C 18,3 C 13,3 C 85 % 1026,3 hPa 0,0 l/m 0 min 0 min 199 W/m 6,4 km/h (2 Bft) 97,83 %
08.10.2023 11:40 17,3 C 18,3 C 13,3 C 85 % 1026,4 hPa 0,0 l/m 0 min 0 min 214 W/m 6,4 km/h (2 Bft) 97,87 %
08.10.2023 11:42 17,3 C 17,8 C 13,3 C 84 % 1026,4 hPa 0,0 l/m 0 min 0 min 230 W/m 6,4 km/h (2 Bft) 97,87 %
08.10.2023 11:44 17,4 C 17,8 C 13,3 C 84 % 1026,3 hPa 0,0 l/m 0 min 0 min 200 W/m 3,2 km/h (1 Bft) 97,87 %
08.10.2023 11:46 17,4 C 17,8 C 13,3 C 85 % 1026,3 hPa 0,0 l/m 0 min 0 min 173 W/m 3,2 km/h (1 Bft) 97,87 %
08.10.2023 11:48 17,4 C 17,8 C 13,3 C 85 % 1026,3 hPa 0,0 l/m 0 min 0 min 212 W/m 6,4 km/h (2 Bft) 95,74 %
08.10.2023 11:50 17,5 C 17,8 C 13,3 C 85 % 1026,4 hPa 0,0 l/m 0 min 0 min 220 W/m 6,4 km/h (2 Bft) 97,87 %
08.10.2023 11:52 17,5 C 17,8 C 13,3 C 85 % 1026,4 hPa 0,0 l/m 0 min 0 min 202 W/m 6,4 km/h (2 Bft) 97,87 %
08.10.2023 11:54 17,6 C 18,3 C 13,3 C 85 % 1026,4 hPa 0,0 l/m 0 min 0 min 212 W/m 3,2 km/h (1 Bft) 95,74 %
08.10.2023 11:56 17,6 C 18,3 C 13,3 C 85 % 1026,3 hPa 0,0 l/m 0 min 0 min 245 W/m 6,4 km/h (2 Bft) 100,00 %
08.10.2023 11:58 17,6 C 18,3 C 13,3 C 85 % 1026,4 hPa 0,0 l/m 2 min 0 min 250 W/m 6,4 km/h (2 Bft) 100,00 %
08.10.2023 12:00 17,7 C 18,3 C 13,9 C 85 % 1026,3 hPa 0,0 l/m 0 min 0 min 237 W/m 3,2 km/h (1 Bft) 97,87 %
08.10.2023 12:02 17,7 C 18,3 C 13,9 C 85 % 1026,4 hPa 0,0 l/m 2 min 0 min 261 W/m 3,2 km/h (1 Bft) 97,87 %
08.10.2023 12:04 17,8 C 18,9 C 13,9 C 85 % 1026,3 hPa 0,0 l/m 0 min 0 min 224 W/m 3,2 km/h (1 Bft) 100,00 %
08.10.2023 12:08 17,8 C 18,3 C 13,9 C 85 % 1026,3 hPa 0,0 l/m 0 min 0 min 195 W/m 3,2 km/h (1 Bft) 100,00 %
08.10.2023 12:10 17,8 C 18,3 C 13,9 C 85 % 1026,3 hPa 0,0 l/m 0 min 0 min 191 W/m 6,4 km/h (2 Bft) 100,00 %
08.10.2023 12:12 17,9 C 18,3 C 13,9 C 85 % 1026,3 hPa 0,0 l/m 0 min 0 min 183 W/m 6,4 km/h (2 Bft) 100,00 %
08.10.2023 12:14 17,9 C 18,3 C 13,9 C 84 % 1026,4 hPa 0,0 l/m 0 min 0 min 172 W/m 6,4 km/h (2 Bft) 100,00 %
08.10.2023 12:16 17,9 C 17,8 C 13,9 C 84 % 1026,3 hPa 0,0 l/m 0 min 0 min 169 W/m 3,2 km/h (1 Bft) 100,00 %
08.10.2023 12:18 17,9 C 18,3 C 13,9 C 84 % 1026,3 hPa 0,0 l/m 0 min 0 min 176 W/m 3,2 km/h (1 Bft) 100,00 %
08.10.2023 12:20 17,9 C 17,8 C 13,3 C 84 % 1026,3 hPa 0,0 l/m 0 min 0 min 205 W/m 6,4 km/h (2 Bft) 100,00 %
08.10.2023 12:22 17,9 C 17,8 C 13,9 C 84 % 1026,4 hPa 0,0 l/m 0 min 0 min 219 W/m 3,2 km/h (1 Bft) 100,00 %
08.10.2023 12:24 17,9 C 17,8 C 13,9 C 84 % 1026,3 hPa 0,0 l/m 0 min 0 min 205 W/m 0,0 km/h (0 Bft) 100,00 %
08.10.2023 12:26 17,9 C 18,3 C 13,9 C 84 % 1026,3 hPa 0,0 l/m 0 min 0 min 198 W/m 3,2 km/h (1 Bft) 100,00 %
08.10.2023 12:28 17,9 C 18,3 C 13,9 C 84 % 1026,3 hPa 0,0 l/m 0 min 0 min 201 W/m 3,2 km/h (1 Bft) 100,00 %
08.10.2023 12:30 17,9 C 18,3 C 13,9 C 84 % 1026,3 hPa 0,0 l/m 0 min 0 min 220 W/m 3,2 km/h (1 Bft) 97,87 %
08.10.2023 12:32 18,0 C 18,3 C 13,9 C 84 % 1026,2 hPa 0,0 l/m 0 min 0 min 238 W/m 3,2 km/h (1 Bft) 97,87 %
08.10.2023 12:34 18,0 C 18,9 C 13,9 C 84 % 1026,2 hPa 0,0 l/m 0 min 0 min 244 W/m 3,2 km/h (1 Bft) 97,87 %
08.10.2023 12:36 18,1 C 18,9 C 13,9 C 84 % 1026,3 hPa 0,0 l/m 0 min 0 min 244 W/m 3,2 km/h (1 Bft) 95,74 %
08.10.2023 12:38 18,1 C 18,9 C 13,9 C 84 % 1026,3 hPa 0,0 l/m 0 min 0 min 231 W/m 6,4 km/h (2 Bft) 97,83 %
08.10.2023 12:40 18,1 C 18,9 C 13,9 C 84 % 1026,3 hPa 0,0 l/m 0 min 0 min 235 W/m 3,2 km/h (1 Bft) 97,87 %
08.10.2023 12:42 18,1 C 18,9 C 13,9 C 84 % 1026,4 hPa 0,0 l/m 0 min 0 min 255 W/m 6,4 km/h (2 Bft) 97,87 %
08.10.2023 12:44 18,2 C 18,9 C 14,4 C 84 % 1026,3 hPa 0,0 l/m 2 min 0 min 278 W/m 6,4 km/h (2 Bft) 98,21 %
08.10.2023 12:46 18,2 C 18,9 C 14,4 C 84 % 1026,4 hPa 0,0 l/m 2 min 0 min 290 W/m 6,4 km/h (2 Bft) 97,87 %
08.10.2023 12:48 18,2 C 18,9 C 13,9 C 84 % 1026,3 hPa 0,0 l/m 0 min 0 min 265 W/m 3,2 km/h (1 Bft) 97,87 %
08.10.2023 12:50 18,2 C 18,9 C 14,4 C 84 % 1026,3 hPa 0,0 l/m 0 min 0 min 217 W/m 3,2 km/h (1 Bft) 97,87 %
08.10.2023 12:52 18,2 C 18,9 C 14,4 C 84 % 1026,3 hPa 0,0 l/m 0 min 0 min 215 W/m 3,2 km/h (1 Bft) 97,87 %
08.10.2023 12:54 18,3 C 18,9 C 14,4 C 84 % 1026,3 hPa 0,0 l/m 0 min 0 min 219 W/m 0,0 km/h (0 Bft) 97,83 %
08.10.2023 12:56 18,3 C 18,9 C 14,4 C 84 % 1026,4 hPa 0,0 l/m 0 min 0 min 221 W/m 3,2 km/h (1 Bft) 97,87 %
08.10.2023 12:58 18,3 C 18,9 C 14,4 C 84 % 1026,4 hPa 0,0 l/m 0 min 0 min 210 W/m 3,2 km/h (1 Bft) 97,87 %
08.10.2023 13:00 18,4 C 18,9 C 14,4 C 84 % 1026,4 hPa 0,0 l/m 0 min 0 min 212 W/m 6,4 km/h (2 Bft) 97,87 %
08.10.2023 13:02 18,4 C 18,3 C 13,9 C 83 % 1026,4 hPa 0,0 l/m 0 min 0 min 223 W/m 6,4 km/h (2 Bft) 97,87 %
08.10.2023 13:04 18,3 C 18,3 C 13,9 C 84 % 1026,4 hPa 0,0 l/m 0 min 0 min 223 W/m 3,2 km/h (1 Bft) 97,87 %
08.10.2023 13:06 18,3 C 18,3 C 13,9 C 84 % 1026,4 hPa 0,0 l/m 0 min 0 min 202 W/m 3,2 km/h (1 Bft) 97,87 %
08.10.2023 13:08 18,4 C 18,3 C 14,4 C 84 % 1026,4 hPa 0,0 l/m 0 min 0 min 184 W/m 3,2 km/h (1 Bft) 95,74 %
08.10.2023 13:10 18,4 C 18,9 C 14,4 C 84 % 1026,3 hPa 0,0 l/m 0 min 0 min 194 W/m 0,0 km/h (0 Bft) 100,00 %
08.10.2023 13:12 18,4 C 18,9 C 14,4 C 84 % 1026,2 hPa 0,0 l/m 0 min 0 min 192 W/m 3,2 km/h (1 Bft) 100,00 %
08.10.2023 13:14 18,4 C 18,9 C 14,4 C 84 % 1026,3 hPa 0,0 l/m 0 min 0 min 184 W/m 3,2 km/h (1 Bft) 100,00 %
08.10.2023 13:16 18,5 C 18,9 C 14,4 C 83 % 1026,2 hPa 0,0 l/m 0 min 0 min 206 W/m 3,2 km/h (1 Bft) 97,87 %
08.10.2023 13:18 18,5 C 18,9 C 14,4 C 84 % 1026,3 hPa 0,0 l/m 0 min 0 min 230 W/m 3,2 km/h (1 Bft) 97,87 %
08.10.2023 13:20 18,5 C 18,9 C 14,4 C 84 % 1026,2 hPa 0,0 l/m 0 min 0 min 256 W/m 3,2 km/h (1 Bft) 95,74 %
08.10.2023 13:22 18,6 C 18,9 C 14,4 C 83 % 1026,3 hPa 0,0 l/m 0 min 0 min 246 W/m 3,2 km/h (1 Bft) 97,87 %
08.10.2023 13:24 18,6 C 18,9 C 14,4 C 83 % 1026,3 hPa 0,0 l/m 2 min 0 min 269 W/m 9,7 km/h (2 Bft) 100,00 %
08.10.2023 13:26 18,6 C 18,9 C 14,4 C 83 % 1026,2 hPa 0,0 l/m 0 min 0 min 257 W/m 6,4 km/h (2 Bft) 100,00 %
08.10.2023 13:28 18,6 C 18,9 C 14,4 C 83 % 1026,3 hPa 0,0 l/m 0 min 0 min 260 W/m 6,4 km/h (2 Bft) 97,87 %
08.10.2023 13:30 18,7 C 18,9 C 14,4 C 83 % 1026,3 hPa 0,0 l/m 0 min 0 min 233 W/m 3,2 km/h (1 Bft) 100,00 %
08.10.2023 13:32 18,7 C 18,9 C 14,4 C 83 % 1026,3 hPa 0,0 l/m 0 min 0 min 175 W/m 3,2 km/h (1 Bft) 95,65 %
08.10.2023 13:34 18,7 C 18,9 C 14,4 C 83 % 1026,3 hPa 0,0 l/m 0 min 0 min 155 W/m 3,2 km/h (1 Bft) 97,87 %
08.10.2023 13:36 18,7 C 18,9 C 14,4 C 83 % 1026,3 hPa 0,0 l/m 0 min 0 min 159 W/m 6,4 km/h (2 Bft) 97,22 %
08.10.2023 13:38 18,7 C 18,9 C 14,4 C 83 % 1026,2 hPa 0,0 l/m 0 min 0 min 207 W/m 3,2 km/h (1 Bft) 95,65 %
08.10.2023 13:40 18,7 C 18,9 C 14,4 C 83 % 1026,2 hPa 0,0 l/m 0 min 0 min 252 W/m 6,4 km/h (2 Bft) 93,62 %
08.10.2023 13:42 18,7 C 18,9 C 14,4 C 83 % 1026,2 hPa 0,0 l/m 0 min 0 min 255 W/m 6,4 km/h (2 Bft) 93,62 %
08.10.2023 13:44 18,7 C 18,9 C 14,4 C 83 % 1026,3 hPa 0,0 l/m 0 min 0 min 263 W/m 6,4 km/h (2 Bft) 93,62 %
08.10.2023 13:46 18,7 C 19,4 C 14,4 C 83 % 1026,3 hPa 0,0 l/m 0 min 0 min 241 W/m 3,2 km/h (1 Bft) 95,74 %
08.10.2023 13:48 18,7 C 18,9 C 14,4 C 83 % 1026,2 hPa 0,0 l/m 0 min 0 min 196 W/m 3,2 km/h (1 Bft) 95,74 %
08.10.2023 13:50 18,7 C 18,9 C 14,4 C 83 % 1026,2 hPa 0,0 l/m 0 min 0 min 168 W/m 3,2 km/h (1 Bft) 95,74 %
08.10.2023 13:52 18,7 C 18,9 C 14,4 C 83 % 1026,2 hPa 0,0 l/m 0 min 0 min 175 W/m 3,2 km/h (1 Bft) 95,74 %
08.10.2023 13:54 18,7 C 18,9 C 14,4 C 83 % 1026,2 hPa 0,0 l/m 0 min 0 min 222 W/m 3,2 km/h (1 Bft) 95,74 %
08.10.2023 13:56 18,7 C 18,9 C 14,4 C 83 % 1026,2 hPa 0,0 l/m 2 min 0 min 276 W/m 3,2 km/h (1 Bft) 95,65 %
08.10.2023 13:58 18,8 C 19,4 C 14,4 C 83 % 1026,1 hPa 0,0 l/m 0 min 0 min 246 W/m 3,2 km/h (1 Bft) 93,62 %
08.10.2023 14:00 18,8 C 18,9 C 14,4 C 83 % 1026,1 hPa 0,0 l/m 2 min 0 min 280 W/m 3,2 km/h (1 Bft) 95,74 %
08.10.2023 14:02 18,8 C 18,9 C 14,4 C 83 % 1026,1 hPa 0,0 l/m 0 min 0 min 182 W/m 3,2 km/h (1 Bft) 95,74 %
08.10.2023 14:04 18,8 C 18,9 C 14,4 C 83 % 1026,0 hPa 0,0 l/m 0 min 0 min 203 W/m 3,2 km/h (1 Bft) 95,24 %
08.10.2023 14:06 18,8 C 18,9 C 14,4 C 83 % 1026,1 hPa 0,0 l/m 0 min 0 min 124 W/m 3,2 km/h (1 Bft) 94,92 %
08.10.2023 14:08 18,8 C 18,9 C 14,4 C 84 % 1026,1 hPa 0,0 l/m 0 min 0 min 177 W/m 6,4 km/h (2 Bft) 97,14 %
08.10.2023 14:10 18,8 C 18,9 C 14,4 C 84 % 1026,1 hPa 0,0 l/m 0 min 0 min 135 W/m 3,2 km/h (1 Bft) 95,74 %
08.10.2023 14:12 18,8 C 18,3 C 13,9 C 84 % 1026,1 hPa 0,0 l/m 0 min 0 min 115 W/m 6,4 km/h (2 Bft) 95,74 %
08.10.2023 14:14 18,8 C 18,3 C 14,4 C 84 % 1026,1 hPa 0,0 l/m 0 min 0 min 144 W/m 6,4 km/h (2 Bft) 93,62 %
08.10.2023 14:16 18,8 C 18,3 C 14,4 C 84 % 1026,1 hPa 0,0 l/m 0 min 0 min 141 W/m 3,2 km/h (1 Bft) 95,74 %
08.10.2023 14:18 18,8 C 18,3 C 13,9 C 84 % 1026,1 hPa 0,0 l/m 0 min 0 min 118 W/m 6,4 km/h (2 Bft) 97,87 %
08.10.2023 14:20 18,8 C 18,3 C 13,9 C 85 % 1026,0 hPa 0,0 l/m 0 min 0 min 109 W/m 3,2 km/h (1 Bft) 97,83 %
08.10.2023 14:22 18,7 C 18,3 C 13,9 C 85 % 1026,0 hPa 0,0 l/m 0 min 0 min 108 W/m 3,2 km/h (1 Bft) 97,87 %
08.10.2023 14:24 18,7 C 18,3 C 13,9 C 85 % 1026,0 hPa 0,0 l/m 0 min 0 min 102 W/m 3,2 km/h (1 Bft) 95,74 %
08.10.2023 14:26 18,7 C 18,3 C 13,9 C 85 % 1026,0 hPa 0,0 l/m 0 min 0 min 87 W/m 3,2 km/h (1 Bft) 100,00 %
08.10.2023 14:28 18,6 C 17,8 C 13,9 C 85 % 1025,9 hPa 0,0 l/m 0 min 0 min 81 W/m 6,4 km/h (2 Bft) 100,00 %
08.10.2023 14:30 18,4 C 17,8 C 13,9 C 85 % 1026,0 hPa 0,0 l/m 0 min 0 min 72 W/m 6,4 km/h (2 Bft) 100,00 %
08.10.2023 14:32 18,4 C 17,8 C 13,9 C 85 % 1025,6 hPa 0,0 l/m 0 min 0 min 85 W/m 3,2 km/h (1 Bft) 100,00 %
08.10.2023 14:34 18,3 C 17,8 C 13,9 C 86 % 1026,0 hPa 0,0 l/m 0 min 0 min 79 W/m 3,2 km/h (1 Bft) 97,87 %
08.10.2023 14:36 18,3 C 17,2 C 13,3 C 86 % 1026,1 hPa 0,0 l/m 0 min 0 min 60 W/m 6,4 km/h (2 Bft) 100,00 %
08.10.2023 14:38 18,2 C 17,2 C 13,3 C 86 % 1026,0 hPa 0,0 l/m 0 min 2 min 73 W/m 3,2 km/h (1 Bft) 100,00 %
08.10.2023 14:40 18,2 C 17,2 C 13,3 C 86 % 1025,7 hPa 0,0 l/m 0 min 0 min 98 W/m 3,2 km/h (1 Bft) 95,74 %
08.10.2023 14:42 18,2 C 17,2 C 13,3 C 87 % 1025,8 hPa 0,0 l/m 0 min 0 min 98 W/m 6,4 km/h (2 Bft) 97,87 %
08.10.2023 14:44 18,1 C 17,2 C 13,3 C 87 % 1025,9 hPa 0,0 l/m 0 min 0 min 80 W/m 6,4 km/h (2 Bft) 100,00 %
08.10.2023 14:46 18,1 C 17,2 C 13,3 C 87 % 1025,9 hPa 0,0 l/m 0 min 0 min 93 W/m 6,4 km/h (2 Bft) 95,74 %
08.10.2023 14:48 18,0 C 17,2 C 13,3 C 87 % 1025,7 hPa 0,0 l/m 0 min 0 min 120 W/m 6,4 km/h (2 Bft) 95,74 %
08.10.2023 14:50 17,9 C 17,2 C 13,3 C 87 % 1025,6 hPa 0,0 l/m 0 min 0 min 131 W/m 6,4 km/h (2 Bft) 95,74 %
08.10.2023 14:52 17,9 C 17,8 C 13,3 C 87 % 1025,6 hPa 0,0 l/m 0 min 0 min 136 W/m 6,4 km/h (2 Bft) 97,87 %
08.10.2023 14:54 17,9 C 17,8 C 13,3 C 88 % 1025,7 hPa 0,0 l/m 0 min 0 min 133 W/m 3,2 km/h (1 Bft) 97,87 %
08.10.2023 14:56 17,9 C 17,8 C 13,3 C 88 % 1025,6 hPa 0,0 l/m 0 min 0 min 139 W/m 3,2 km/h (1 Bft) 97,87 %
08.10.2023 14:58 17,9 C 17,8 C 13,3 C 88 % 1025,7 hPa 0,0 l/m 0 min 0 min 135 W/m 3,2 km/h (1 Bft) 97,83 %
08.10.2023 15:00 17,9 C 17,8 C 13,3 C 88 % 1025,7 hPa 0,0 l/m 0 min 0 min 150 W/m 6,4 km/h (2 Bft) 97,87 %
08.10.2023 15:02 17,9 C 17,8 C 13,9 C 88 % 1025,7 hPa 0,0 l/m 0 min 0 min 192 W/m 6,4 km/h (2 Bft) 97,87 %
08.10.2023 15:04 17,9 C 17,8 C 13,9 C 88 % 1025,7 hPa 0,0 l/m 0 min 0 min 190 W/m 12,9 km/h (3 Bft) 97,96 %
08.10.2023 15:06 17,8 C 17,8 C 13,9 C 88 % 1025,7 hPa 0,0 l/m 0 min 0 min 178 W/m 12,9 km/h (3 Bft) 97,87 %
08.10.2023 15:08 17,8 C 17,8 C 13,9 C 88 % 1025,6 hPa 0,0 l/m 0 min 0 min 174 W/m 3,2 km/h (1 Bft) 97,87 %
08.10.2023 15:10 17,9 C 17,8 C 13,9 C 88 % 1025,5 hPa 0,0 l/m 0 min 0 min 179 W/m 6,4 km/h (2 Bft) 97,87 %
08.10.2023 15:12 17,9 C 17,8 C 13,9 C 88 % 1025,5 hPa 0,0 l/m 0 min 0 min 163 W/m 9,7 km/h (2 Bft) 97,87 %
08.10.2023 15:14 17,9 C 18,3 C 13,9 C 88 % 1025,5 hPa 0,0 l/m 0 min 0 min 168 W/m 3,2 km/h (1 Bft) 97,87 %
08.10.2023 15:16 17,9 C 18,3 C 13,9 C 88 % 1025,5 hPa 0,0 l/m 0 min 0 min 137 W/m 3,2 km/h (1 Bft) 100,00 %
08.10.2023 15:18 17,9 C 18,3 C 13,9 C 88 % 1025,4 hPa 0,0 l/m 0 min 0 min 154 W/m 6,4 km/h (2 Bft) 100,00 %
08.10.2023 15:20 17,9 C 18,3 C 13,9 C 88 % 1025,5 hPa 0,0 l/m 2 min 0 min 237 W/m 6,4 km/h (2 Bft) 100,00 %
08.10.2023 15:22 18,0 C 18,3 C 13,9 C 88 % 1025,5 hPa 0,0 l/m 2 min 0 min 293 W/m 6,4 km/h (2 Bft) 100,00 %
08.10.2023 15:24 18,1 C 18,9 C 13,9 C 88 % 1025,4 hPa 0,0 l/m 2 min 0 min 242 W/m 6,4 km/h (2 Bft) 100,00 %
08.10.2023 15:26 18,1 C 18,9 C 14,4 C 88 % 1025,4 hPa 0,0 l/m 2 min 0 min 235 W/m 6,4 km/h (2 Bft) 100,00 %
08.10.2023 15:28 18,1 C 18,9 C 14,4 C 88 % 1025,4 hPa 0,0 l/m 0 min 0 min 220 W/m 3,2 km/h (1 Bft) 100,00 %
08.10.2023 15:30 18,2 C 18,9 C 14,4 C 88 % 1025,3 hPa 0,0 l/m 2 min 0 min 222 W/m 3,2 km/h (1 Bft) 100,00 %
08.10.2023 15:32 18,2 C 18,9 C 14,4 C 88 % 1025,3 hPa 0,0 l/m 0 min 0 min 197 W/m 6,4 km/h (2 Bft) 97,87 %
08.10.2023 15:34 18,2 C 18,9 C 14,4 C 88 % 1025,3 hPa 0,0 l/m 0 min 0 min 205 W/m 3,2 km/h (1 Bft) 100,00 %
08.10.2023 15:36 18,2 C 18,9 C 14,4 C 88 % 1025,3 hPa 0,0 l/m 2 min 0 min 218 W/m 3,2 km/h (1 Bft) 100,00 %
08.10.2023 15:38 18,3 C 18,9 C 14,4 C 88 % 1025,3 hPa 0,0 l/m 2 min 0 min 226 W/m 6,4 km/h (2 Bft) 100,00 %
08.10.2023 15:40 18,3 C 18,9 C 14,4 C 87 % 1025,2 hPa 0,0 l/m 2 min 0 min 264 W/m 6,4 km/h (2 Bft) 100,00 %
08.10.2023 15:42 18,3 C 18,9 C 14,4 C 87 % 1025,2 hPa 0,0 l/m 2 min 0 min 278 W/m 6,4 km/h (2 Bft) 100,00 %
08.10.2023 15:44 18,3 C 18,9 C 14,4 C 87 % 1025,2 hPa 0,0 l/m 2 min 0 min 417 W/m 6,4 km/h (2 Bft) 100,00 %
08.10.2023 15:46 18,4 C 18,9 C 14,4 C 87 % 1025,1 hPa 0,0 l/m 2 min 0 min 245 W/m 3,2 km/h (1 Bft) 100,00 %
08.10.2023 15:48 18,4 C 18,9 C 14,4 C 87 % 1025,0 hPa 0,0 l/m 2 min 0 min 211 W/m 6,4 km/h (2 Bft) 100,00 %
08.10.2023 15:50 18,4 C 18,9 C 14,4 C 87 % 1025,0 hPa 0,0 l/m 2 min 0 min 211 W/m 6,4 km/h (2 Bft) 100,00 %
08.10.2023 15:52 18,4 C 18,9 C 14,4 C 87 % 1025,0 hPa 0,0 l/m 2 min 0 min 221 W/m 6,4 km/h (2 Bft) 100,00 %
08.10.2023 15:54 18,5 C 18,9 C 14,4 C 87 % 1025,0 hPa 0,0 l/m 2 min 0 min 204 W/m 6,4 km/h (2 Bft) 100,00 %
08.10.2023 15:56 18,5 C 18,9 C 14,4 C 86 % 1025,1 hPa 0,0 l/m 2 min 0 min 210 W/m 6,4 km/h (2 Bft) 100,00 %
08.10.2023 15:58 18,5 C 18,9 C 14,4 C 86 % 1024,9 hPa 0,0 l/m 0 min 0 min 193 W/m 6,4 km/h (2 Bft) 100,00 %
08.10.2023 16:00 18,5 C 18,9 C 14,4 C 87 % 1024,9 hPa 0,0 l/m 0 min 0 min 196 W/m 3,2 km/h (1 Bft) 100,00 %
08.10.2023 16:02 18,5 C 18,9 C 14,4 C 87 % 1024,9 hPa 0,0 l/m 2 min 0 min 206 W/m 3,2 km/h (1 Bft) 100,00 %
08.10.2023 16:04 18,6 C 18,9 C 14,4 C 86 % 1024,9 hPa 0,0 l/m 2 min 0 min 218 W/m 6,4 km/h (2 Bft) 97,96 %
08.10.2023 16:06 18,6 C 18,9 C 14,4 C 87 % 1024,9 hPa 0,0 l/m 2 min 0 min 216 W/m 6,4 km/h (2 Bft) 95,74 %
08.10.2023 16:08 18,6 C 18,9 C 14,4 C 87 % 1024,9 hPa 0,0 l/m 2 min 0 min 199 W/m 6,4 km/h (2 Bft) 97,87 %
08.10.2023 16:10 18,6 C 18,9 C 14,4 C 87 % 1024,8 hPa 0,0 l/m 2 min 0 min 191 W/m 3,2 km/h (1 Bft) 97,87 %
08.10.2023 16:12 18,6 C 18,9 C 14,4 C 86 % 1024,8 hPa 0,0 l/m 2 min 0 min 192 W/m 3,2 km/h (1 Bft) 97,87 %
08.10.2023 16:14 18,6 C 18,9 C 14,4 C 86 % 1024,8 hPa 0,0 l/m 2 min 0 min 198 W/m 3,2 km/h (1 Bft) 97,83 %
08.10.2023 16:16 18,6 C 18,9 C 14,4 C 87 % 1024,7 hPa 0,0 l/m 2 min 0 min 215 W/m 3,2 km/h (1 Bft) 95,74 %
08.10.2023 16:18 18,7 C 18,9 C 14,4 C 87 % 1024,7 hPa 0,0 l/m 2 min 0 min 307 W/m 3,2 km/h (1 Bft) 97,87 %
08.10.2023 16:20 18,7 C 18,9 C 14,4 C 86 % 1024,7 hPa 0,0 l/m 2 min 0 min 341 W/m 3,2 km/h (1 Bft) 97,87 %
08.10.2023 16:22 18,7 C 19,4 C 14,4 C 86 % 1024,8 hPa 0,0 l/m 2 min 0 min 350 W/m 6,4 km/h (2 Bft) 97,87 %
08.10.2023 16:24 18,8 C 18,9 C 14,4 C 86 % 1024,8 hPa 0,0 l/m 2 min 0 min 278 W/m 9,7 km/h (2 Bft) 95,74 %
08.10.2023 16:26 18,8 C 19,4 C 14,4 C 86 % 1024,7 hPa 0,0 l/m 2 min 0 min 226 W/m 6,4 km/h (2 Bft) 97,87 %
08.10.2023 16:28 18,8 C 18,9 C 14,4 C 86 % 1024,7 hPa 0,0 l/m 2 min 0 min 207 W/m 6,4 km/h (2 Bft) 95,74 %
08.10.2023 16:30 18,8 C 18,9 C 14,4 C 86 % 1024,6 hPa 0,0 l/m 2 min 0 min 214 W/m 6,4 km/h (2 Bft) 97,87 %
08.10.2023 16:32 18,8 C 18,9 C 14,4 C 86 % 1024,7 hPa 0,0 l/m 2 min 0 min 179 W/m 6,4 km/h (2 Bft) 93,62 %
08.10.2023 16:34 18,8 C 18,3 C 14,4 C 86 % 1024,7 hPa 0,0 l/m 0 min 0 min 159 W/m 9,7 km/h (2 Bft) 97,83 %
08.10.2023 16:36 18,8 C 18,3 C 14,4 C 86 % 1024,7 hPa 0,0 l/m 0 min 0 min 150 W/m 3,2 km/h (1 Bft) 95,74 %
08.10.2023 16:38 18,8 C 18,9 C 14,4 C 86 % 1024,7 hPa 0,0 l/m 0 min 0 min 145 W/m 3,2 km/h (1 Bft) 97,87 %
08.10.2023 16:40 18,8 C 18,3 C 14,4 C 86 % 1024,8 hPa 0,0 l/m 0 min 0 min 126 W/m 6,4 km/h (2 Bft) 95,74 %
08.10.2023 16:42 18,8 C 18,3 C 13,9 C 86 % 1024,7 hPa 0,0 l/m 0 min 0 min 102 W/m 6,4 km/h (2 Bft) 93,62 %
08.10.2023 16:44 18,7 C 18,3 C 13,9 C 86 % 1024,7 hPa 0,0 l/m 0 min 0 min 89 W/m 3,2 km/h (1 Bft) 95,74 %
08.10.2023 16:46 18,7 C 17,8 C 13,9 C 86 % 1024,7 hPa 0,0 l/m 0 min 0 min 84 W/m 3,2 km/h (1 Bft) 93,62 %
08.10.2023 16:48 18,7 C 17,8 C 13,9 C 86 % 1024,7 hPa 0,0 l/m 0 min 0 min 99 W/m 6,4 km/h (2 Bft) 95,74 %
08.10.2023 16:50 18,6 C 17,8 C 13,9 C 86 % 1024,8 hPa 0,0 l/m 0 min 0 min 96 W/m 6,4 km/h (2 Bft) 95,74 %
08.10.2023 16:52 18,6 C 17,8 C 13,9 C 86 % 1024,8 hPa 0,0 l/m 0 min 0 min 102 W/m 3,2 km/h (1 Bft) 95,65 %
08.10.2023 16:54 18,6 C 17,8 C 13,9 C 86 % 1024,8 hPa 0,0 l/m 0 min 0 min 116 W/m 3,2 km/h (1 Bft) 93,62 %
08.10.2023 16:56 18,6 C 17,8 C 13,9 C 86 % 1024,8 hPa 0,0 l/m 0 min 0 min 109 W/m 6,4 km/h (2 Bft) 93,62 %
08.10.2023 16:58 18,5 C 17,8 C 13,9 C 86 % 1024,8 hPa 0,0 l/m 0 min 0 min 108 W/m 9,7 km/h (2 Bft) 95,74 %
08.10.2023 17:00 18,4 C 17,8 C 13,9 C 86 % 1024,8 hPa 0,0 l/m 0 min 0 min 131 W/m 9,7 km/h (2 Bft) 95,74 %
08.10.2023 17:02 18,4 C 17,8 C 13,9 C 86 % 1024,8 hPa 0,0 l/m 0 min 0 min 111 W/m 6,4 km/h (2 Bft) 95,74 %
08.10.2023 17:04 18,4 C 17,8 C 13,9 C 86 % 1024,8 hPa 0,0 l/m 0 min 0 min 85 W/m 3,2 km/h (1 Bft) 93,88 %
08.10.2023 17:06 18,3 C 17,8 C 13,3 C 86 % 1024,8 hPa 0,0 l/m 0 min 0 min 91 W/m 6,4 km/h (2 Bft) 95,74 %
08.10.2023 17:08 18,3 C 17,8 C 13,3 C 86 % 1024,8 hPa 0,0 l/m 0 min 0 min 82 W/m 6,4 km/h (2 Bft) 95,74 %
08.10.2023 17:10 18,3 C 17,2 C 13,3 C 86 % 1024,8 hPa 0,0 l/m 0 min 0 min 85 W/m 6,4 km/h (2 Bft) 95,74 %
08.10.2023 17:12 18,2 C 17,2 C 13,3 C 86 % 1024,9 hPa 0,0 l/m 0 min 0 min 102 W/m 6,4 km/h (2 Bft) 95,65 %
08.10.2023 17:14 18,2 C 17,2 C 13,3 C 87 % 1024,8 hPa 0,0 l/m 2 min 0 min 154 W/m 6,4 km/h (2 Bft) 95,74 %
08.10.2023 17:16 18,2 C 17,2 C 13,3 C 87 % 1024,7 hPa 0,0 l/m 0 min 0 min 113 W/m 6,4 km/h (2 Bft) 93,62 %
08.10.2023 17:18 18,2 C 17,8 C 13,3 C 87 % 1024,7 hPa 0,0 l/m 2 min 0 min 179 W/m 3,2 km/h (1 Bft) 95,74 %
08.10.2023 17:20 18,1 C 17,8 C 13,3 C 87 % 1024,7 hPa 0,0 l/m 2 min 0 min 193 W/m 6,4 km/h (2 Bft) 95,74 %
08.10.2023 17:22 18,1 C 17,8 C 13,9 C 87 % 1024,7 hPa 0,0 l/m 2 min 0 min 188 W/m 9,7 km/h (2 Bft) 95,74 %
08.10.2023 17:24 18,1 C 17,8 C 13,9 C 87 % 1024,6 hPa 0,0 l/m 2 min 0 min 151 W/m 6,4 km/h (2 Bft) 97,87 %
08.10.2023 17:26 18,2 C 17,8 C 13,9 C 87 % 1024,6 hPa 0,0 l/m 2 min 0 min 130 W/m 3,2 km/h (1 Bft) 97,87 %
08.10.2023 17:28 18,2 C 18,3 C 13,9 C 88 % 1024,6 hPa 0,0 l/m 2 min 0 min 119 W/m 3,2 km/h (1 Bft) 97,87 %
08.10.2023 17:30 18,2 C 18,3 C 13,9 C 88 % 1024,6 hPa 0,0 l/m 2 min 0 min 127 W/m 6,4 km/h (2 Bft) 100,00 %
08.10.2023 17:32 18,2 C 18,3 C 13,9 C 88 % 1024,6 hPa 0,0 l/m 2 min 0 min 137 W/m 6,4 km/h (2 Bft) 100,00 %
08.10.2023 17:34 18,2 C 18,3 C 13,9 C 88 % 1024,6 hPa 0,0 l/m 2 min 0 min 147 W/m 3,2 km/h (1 Bft) 100,00 %
08.10.2023 17:36 18,2 C 18,3 C 13,9 C 88 % 1024,6 hPa 0,0 l/m 2 min 0 min 144 W/m 3,2 km/h (1 Bft) 100,00 %
08.10.2023 17:38 18,2 C 18,3 C 13,9 C 88 % 1024,6 hPa 0,0 l/m 2 min 0 min 134 W/m 3,2 km/h (1 Bft) 100,00 %
08.10.2023 17:40 18,2 C 18,3 C 13,9 C 88 % 1024,5 hPa 0,0 l/m 2 min 0 min 123 W/m 3,2 km/h (1 Bft) 100,00 %
08.10.2023 17:42 18,2 C 18,3 C 13,9 C 88 % 1024,5 hPa 0,0 l/m 2 min 0 min 110 W/m 3,2 km/h (1 Bft) 100,00 %
08.10.2023 17:44 18,2 C 18,3 C 13,9 C 88 % 1024,5 hPa 0,0 l/m 2 min 0 min 101 W/m 3,2 km/h (1 Bft) 100,00 %
08.10.2023 17:46 18,2 C 18,3 C 13,9 C 88 % 1024,4 hPa 0,0 l/m 2 min 0 min 96 W/m 6,4 km/h (2 Bft) 100,00 %
08.10.2023 17:48 18,2 C 17,8 C 13,9 C 88 % 1024,4 hPa 0,0 l/m 2 min 0 min 87 W/m 3,2 km/h (1 Bft) 100,00 %
08.10.2023 17:50 18,2 C 17,8 C 13,9 C 88 % 1024,4 hPa 0,0 l/m 0 min 0 min 77 W/m 3,2 km/h (1 Bft) 100,00 %
08.10.2023 17:52 18,2 C 17,8 C 13,9 C 88 % 1024,4 hPa 0,0 l/m 0 min 0 min 71 W/m 3,2 km/h (1 Bft) 100,00 %
08.10.2023 17:54 18,1 C 17,8 C 13,3 C 88 % 1024,3 hPa 0,0 l/m 0 min 0 min 65 W/m 3,2 km/h (1 Bft) 100,00 %
08.10.2023 17:56 18,1 C 17,2 C 13,3 C 88 % 1024,3 hPa 0,0 l/m 0 min 0 min 59 W/m 6,4 km/h (2 Bft) 100,00 %
08.10.2023 17:58 18,1 C 17,2 C 13,3 C 88 % 1024,3 hPa 0,0 l/m 0 min 0 min 55 W/m 3,2 km/h (1 Bft) 100,00 %
08.10.2023 18:00 18,1 C 17,2 C 13,3 C 88 % 1024,3 hPa 0,0 l/m 0 min 0 min 52 W/m 3,2 km/h (1 Bft) 97,87 %
08.10.2023 18:02 18,1 C 17,2 C 13,3 C 88 % 1024,3 hPa 0,0 l/m 0 min 0 min 48 W/m 3,2 km/h (1 Bft) 100,00 %
08.10.2023 18:04 18,0 C 17,2 C 13,3 C 88 % 1024,2 hPa 0,0 l/m 0 min 0 min 46 W/m 3,2 km/h (1 Bft) 97,87 %
08.10.2023 18:08 17,9 C 17,2 C 13,3 C 88 % 1024,3 hPa 0,0 l/m 0 min 0 min 39 W/m 3,2 km/h (1 Bft) 98,81 %
08.10.2023 18:10 17,9 C 16,7 C 12,8 C 89 % 1024,3 hPa 0,0 l/m 0 min 0 min 31 W/m 3,2 km/h (1 Bft) 100,00 %
08.10.2023 18:12 17,8 C 16,7 C 12,8 C 89 % 1024,3 hPa 0,0 l/m 0 min 0 min 26 W/m 3,2 km/h (1 Bft) 100,00 %
08.10.2023 18:14 17,8 C 16,7 C 12,8 C 88 % 1024,3 hPa 0,0 l/m 0 min 0 min 24 W/m 3,2 km/h (1 Bft) 100,00 %
08.10.2023 18:16 17,8 C 16,7 C 12,8 C 88 % 1024,3 hPa 0,0 l/m 0 min 0 min 23 W/m 3,2 km/h (1 Bft) 100,00 %
08.10.2023 18:18 17,7 C 16,7 C 12,8 C 88 % 1024,2 hPa 0,0 l/m 0 min 0 min 24 W/m 6,4 km/h (2 Bft) 100,00 %
08.10.2023 18:20 17,7 C 16,7 C 12,8 C 88 % 1024,3 hPa 0,0 l/m 0 min 0 min 25 W/m 0,0 km/h (0 Bft) 100,00 %
08.10.2023 18:22 17,7 C 16,7 C 12,8 C 89 % 1024,3 hPa 0,0 l/m 0 min 0 min 23 W/m 3,2 km/h (1 Bft) 95,74 %
08.10.2023 18:24 17,6 C 16,1 C 12,8 C 89 % 1024,2 hPa 0,0 l/m 0 min 0 min 21 W/m 3,2 km/h (1 Bft) 100,00 %
08.10.2023 18:26 17,6 C 16,1 C 12,8 C 89 % 1024,3 hPa 0,0 l/m 0 min 0 min 19 W/m 0,0 km/h (0 Bft) 97,87 %
08.10.2023 18:28 17,5 C 16,1 C 12,8 C 89 % 1024,3 hPa 0,0 l/m 0 min 0 min 19 W/m 3,2 km/h (1 Bft) 100,00 %
08.10.2023 18:30 17,4 C 16,1 C 12,8 C 89 % 1024,3 hPa 0,0 l/m 0 min 0 min 17 W/m 3,2 km/h (1 Bft) 100,00 %
08.10.2023 18:32 17,4 C 16,1 C 12,8 C 89 % 1024,3 hPa 0,0 l/m 0 min 0 min 15 W/m 0,0 km/h (0 Bft) 100,00 %
08.10.2023 18:34 17,4 C 16,1 C 12,2 C 89 % 1024,2 hPa 0,0 l/m 0 min 0 min 13 W/m 0,0 km/h (0 Bft) 100,00 %
08.10.2023 18:36 17,4 C 16,1 C 12,2 C 89 % 1024,2 hPa 0,0 l/m 0 min 0 min 11 W/m 3,2 km/h (1 Bft) 100,00 %
08.10.2023 18:38 17,3 C 16,1 C 12,2 C 89 % 1024,2 hPa 0,0 l/m 0 min 0 min 11 W/m 0,0 km/h (0 Bft) 100,00 %
08.10.2023 18:40 17,3 C 15,6 C 12,2 C 89 % 1024,2 hPa 0,0 l/m 0 min 0 min 10 W/m 3,2 km/h (1 Bft) 97,87 %
08.10.2023 18:42 17,3 C 15,6 C 12,2 C 89 % 1024,3 hPa 0,0 l/m 0 min 0 min 9 W/m 3,2 km/h (1 Bft) 97,87 %
08.10.2023 18:44 17,2 C 15,6 C 12,2 C 89 % 1024,3 hPa 0,0 l/m 0 min 0 min 7 W/m 3,2 km/h (1 Bft) 97,87 %
08.10.2023 18:46 17,1 C 15,6 C 12,2 C 90 % 1024,3 hPa 0,0 l/m 0 min 0 min 7 W/m 3,2 km/h (1 Bft) 97,87 %
08.10.2023 18:48 17,1 C 15,6 C 12,2 C 89 % 1024,3 hPa 0,0 l/m 0 min 0 min 5 W/m 3,2 km/h (1 Bft) 95,74 %
08.10.2023 18:50 17,0 C 15,6 C 12,2 C 89 % 1024,3 hPa 0,0 l/m 0 min 0 min 5 W/m 3,2 km/h (1 Bft) 95,74 %
08.10.2023 18:52 16,9 C 15,6 C 11,7 C 90 % 1024,3 hPa 0,0 l/m 0 min 0 min 5 W/m 3,2 km/h (1 Bft) 93,62 %
08.10.2023 18:54 16,8 C 15,6 C 11,7 C 90 % 1024,3 hPa 0,0 l/m 0 min 0 min 1 W/m 3,2 km/h (1 Bft) 95,74 %
08.10.2023 18:56 16,8 C 15,6 C 11,7 C 90 % 1024,3 hPa 0,0 l/m 0 min 0 min 0 W/m 3,2 km/h (1 Bft) 95,65 %
08.10.2023 18:58 16,7 C 15,6 C 11,7 C 90 % 1024,3 hPa 0,0 l/m 0 min 0 min 0 W/m 3,2 km/h (1 Bft) 93,62 %
08.10.2023 19:00 16,7 C 15,0 C 11,7 C 90 % 1024,3 hPa 0,0 l/m 0 min 0 min 0 W/m 3,2 km/h (1 Bft) 95,74 %
08.10.2023 19:02 16,6 C 15,0 C 11,7 C 90 % 1024,3 hPa 0,0 l/m 0 min 0 min 0 W/m 3,2 km/h (1 Bft) 95,74 %
08.10.2023 19:04 16,6 C 15,0 C 11,7 C 90 % 1024,3 hPa 0,0 l/m 0 min 0 min 0 W/m 3,2 km/h (1 Bft) 95,74 %
08.10.2023 19:06 16,6 C 15,0 C 11,7 C 91 % 1024,3 hPa 0,0 l/m 0 min 0 min 0 W/m 3,2 km/h (1 Bft) 95,74 %
08.10.2023 19:08 16,5 C 15,0 C 11,7 C 91 % 1024,3 hPa 0,0 l/m 0 min 0 min 0 W/m 0,0 km/h (0 Bft) 95,74 %
08.10.2023 19:10 16,4 C 15,0 C 11,7 C 91 % 1024,2 hPa 0,0 l/m 0 min 0 min 0 W/m 0,0 km/h (0 Bft) 91,49 %
08.10.2023 19:12 16,4 C 15,0 C 11,7 C 91 % 1024,3 hPa 0,0 l/m 0 min 0 min 0 W/m 0,0 km/h (0 Bft) 93,62 %
08.10.2023 19:14 16,4 C 15,0 C 11,7 C 91 % 1024,3 hPa 0,0 l/m 0 min 0 min 0 W/m 0,0 km/h (0 Bft) 95,74 %
08.10.2023 19:16 16,3 C 15,0 C 11,7 C 91 % 1024,3 hPa 0,0 l/m 0 min 0 min 0 W/m 0,0 km/h (0 Bft) 95,65 %
08.10.2023 19:18 16,3 C 15,0 C 11,7 C 91 % 1024,3 hPa 0,0 l/m 0 min 0 min 0 W/m 0,0 km/h (0 Bft) 93,62 %
08.10.2023 19:20 16,2 C 15,0 C 11,7 C 91 % 1024,3 hPa 0,0 l/m 0 min 0 min 0 W/m 0,0 km/h (0 Bft) 95,74 %
08.10.2023 19:22 16,2 C 14,4 C 11,1 C 91 % 1024,2 hPa 0,0 l/m 0 min 0 min 0 W/m 3,2 km/h (1 Bft) 95,74 %
08.10.2023 19:24 16,2 C 14,4 C 11,1 C 91 % 1024,2 hPa 0,0 l/m 0 min 0 min 0 W/m 0,0 km/h (0 Bft) 95,74 %
08.10.2023 19:26 16,1 C 14,4 C 11,1 C 91 % 1024,2 hPa 0,0 l/m 0 min 0 min 0 W/m 0,0 km/h (0 Bft) 93,62 %
08.10.2023 19:28 16,1 C 14,4 C 11,1 C 91 % 1024,2 hPa 0,0 l/m 0 min 0 min 0 W/m 0,0 km/h (0 Bft) 93,62 %
08.10.2023 19:30 16,1 C 14,4 C 11,1 C 91 % 1024,2 hPa 0,0 l/m 0 min 0 min 0 W/m 0,0 km/h (0 Bft) 97,87 %
08.10.2023 19:32 16,1 C 14,4 C 11,1 C 91 % 1024,2 hPa 0,0 l/m 0 min 0 min 0 W/m 0,0 km/h (0 Bft) 97,87 %
08.10.2023 19:34 16,0 C 14,4 C 11,1 C 91 % 1024,1 hPa 0,0 l/m 0 min 0 min 0 W/m 0,0 km/h (0 Bft) 97,87 %
08.10.2023 19:36 15,9 C 14,4 C 11,1 C 91 % 1024,1 hPa 0,0 l/m 0 min 0 min 0 W/m 0,0 km/h (0 Bft) 97,87 %
08.10.2023 19:38 15,9 C 14,4 C 11,1 C 92 % 1024,1 hPa 0,0 l/m 0 min 0 min 0 W/m 3,2 km/h (1 Bft) 95,65 %
08.10.2023 19:40 15,9 C 14,4 C 11,1 C 92 % 1024,1 hPa 0,0 l/m 0 min 0 min 0 W/m 3,2 km/h (1 Bft) 97,87 %
08.10.2023 19:42 15,8 C 14,4 C 11,1 C 92 % 1024,1 hPa 0,0 l/m 0 min 0 min 0 W/m 0,0 km/h (0 Bft) 93,62 %
08.10.2023 19:44 15,8 C 14,4 C 11,1 C 92 % 1024,1 hPa 0,0 l/m 0 min 0 min 0 W/m 0,0 km/h (0 Bft) 97,87 %
08.10.2023 19:46 15,7 C 14,4 C 11,1 C 92 % 1024,1 hPa 0,0 l/m 0 min 0 min 0 W/m 0,0 km/h (0 Bft) 95,74 %
08.10.2023 19:48 15,7 C 14,4 C 11,1 C 92 % 1024,1 hPa 0,0 l/m 0 min 0 min 0 W/m 3,2 km/h (1 Bft) 97,87 %
08.10.2023 19:50 15,6 C 13,9 C 10,6 C 92 % 1024,1 hPa 0,0 l/m 0 min 0 min 0 W/m 0,0 km/h (0 Bft) 97,87 %
08.10.2023 19:52 15,6 C 13,9 C 10,6 C 92 % 1024,0 hPa 0,0 l/m 0 min 0 min 0 W/m 0,0 km/h (0 Bft) 97,87 %
08.10.2023 19:54 15,6 C 13,9 C 10,6 C 92 % 1024,0 hPa 0,0 l/m 0 min 0 min 0 W/m 0,0 km/h (0 Bft) 97,87 %
08.10.2023 19:56 15,6 C 13,9 C 11,1 C 92 % 1024,0 hPa 0,0 l/m 0 min 0 min 0 W/m 0,0 km/h (0 Bft) 97,83 %
08.10.2023 19:58 15,5 C 13,9 C 11,1 C 92 % 1023,9 hPa 0,0 l/m 0 min 0 min 0 W/m 0,0 km/h (0 Bft) 97,87 %
08.10.2023 20:00 15,4 C 13,9 C 10,6 C 92 % 1024,0 hPa 0,0 l/m 0 min 0 min 0 W/m 0,0 km/h (0 Bft) 100,00 %
08.10.2023 20:02 15,4 C 13,9 C 10,6 C 92 % 1023,9 hPa 0,0 l/m 0 min 0 min 0 W/m 3,2 km/h (1 Bft) 100,00 %
08.10.2023 20:04 15,4 C 13,9 C 10,6 C 93 % 1023,9 hPa 0,0 l/m 0 min 0 min 0 W/m 0,0 km/h (0 Bft) 100,00 %
08.10.2023 20:06 15,4 C 13,9 C 10,6 C 92 % 1023,9 hPa 0,0 l/m 0 min 0 min 0 W/m 0,0 km/h (0 Bft) 97,87 %
08.10.2023 20:08 15,3 C 13,9 C 10,6 C 93 % 1023,8 hPa 0,0 l/m 0 min 0 min 0 W/m 0,0 km/h (0 Bft) 100,00 %
08.10.2023 20:10 15,3 C 13,9 C 10,6 C 93 % 1023,8 hPa 0,0 l/m 0 min 0 min 0 W/m 0,0 km/h (0 Bft) 100,00 %
08.10.2023 20:12 15,3 C 13,9 C 10,6 C 93 % 1023,8 hPa 0,0 l/m 0 min 0 min 0 W/m 0,0 km/h (0 Bft) 100,00 %
08.10.2023 20:14 15,3 C 13,9 C 10,6 C 93 % 1023,8 hPa 0,0 l/m 0 min 0 min 0 W/m 0,0 km/h (0 Bft) 100,00 %
08.10.2023 20:16 15,2 C 13,9 C 10,6 C 93 % 1023,8 hPa 0,0 l/m 0 min 0 min 0 W/m 0,0 km/h (0 Bft) 97,83 %
08.10.2023 20:18 15,2 C 13,9 C 10,6 C 93 % 1023,8 hPa 0,0 l/m 0 min 0 min 0 W/m 0,0 km/h (0 Bft) 100,00 %
08.10.2023 20:20 15,2 C 13,9 C 10,6 C 93 % 1023,8 hPa 0,0 l/m 0 min 0 min 0 W/m 0,0 km/h (0 Bft) 100,00 %
08.10.2023 20:22 15,2 C 13,9 C 10,6 C 93 % 1023,7 hPa 0,0 l/m 0 min 0 min 0 W/m 0,0 km/h (0 Bft) 100,00 %
08.10.2023 20:24 15,1 C 13,9 C 10,6 C 93 % 1023,7 hPa 0,0 l/m 0 min 0 min 0 W/m 0,0 km/h (0 Bft) 97,87 %
08.10.2023 20:26 15,1 C 13,9 C 10,6 C 93 % 1023,7 hPa 0,0 l/m 0 min 0 min 0 W/m 0,0 km/h (0 Bft) 100,00 %
08.10.2023 20:28 15,1 C 13,9 C 10,6 C 93 % 1023,7 hPa 0,0 l/m 0 min 0 min 0 W/m 0,0 km/h (0 Bft) 100,00 %
08.10.2023 20:30 15,1 C 13,9 C 10,6 C 93 % 1023,7 hPa 0,0 l/m 0 min 0 min 0 W/m 0,0 km/h (0 Bft) 97,87 %
08.10.2023 20:32 15,0 C 13,9 C 10,6 C 93 % 1023,6 hPa 0,0 l/m 0 min 0 min 0 W/m 3,2 km/h (1 Bft) 100,00 %
08.10.2023 20:34 15,0 C 13,9 C 10,6 C 93 % 1023,6 hPa 0,0 l/m 0 min 0 min 0 W/m 0,0 km/h (0 Bft) 97,87 %
08.10.2023 20:36 14,9 C 13,9 C 10,6 C 93 % 1023,6 hPa 0,0 l/m 0 min 0 min 0 W/m 0,0 km/h (0 Bft) 97,83 %
08.10.2023 20:38 14,9 C 13,3 C 10,6 C 93 % 1023,6 hPa 0,0 l/m 0 min 0 min 0 W/m 0,0 km/h (0 Bft) 97,87 %
08.10.2023 20:40 14,9 C 13,3 C 10,6 C 93 % 1023,6 hPa 0,0 l/m 0 min 0 min 0 W/m 0,0 km/h (0 Bft) 97,87 %
08.10.2023 20:42 14,9 C 13,3 C 10,6 C 93 % 1023,6 hPa 0,0 l/m 0 min 0 min 0 W/m 0,0 km/h (0 Bft) 97,87 %
08.10.2023 20:44 14,8 C 13,3 C 10,6 C 94 % 1023,6 hPa 0,0 l/m 0 min 0 min 0 W/m 0,0 km/h (0 Bft) 97,87 %
08.10.2023 20:46 14,8 C 13,3 C 10,6 C 94 % 1023,6 hPa 0,0 l/m 0 min 0 min 0 W/m 0,0 km/h (0 Bft) 97,87 %
08.10.2023 20:48 14,8 C 13,3 C 10,6 C 94 % 1023,5 hPa 0,0 l/m 0 min 0 min 0 W/m 0,0 km/h (0 Bft) 97,87 %
08.10.2023 20:50 14,8 C 13,3 C 10,6 C 94 % 1023,5 hPa 0,0 l/m 0 min 0 min 0 W/m 0,0 km/h (0 Bft) 95,74 %
08.10.2023 20:52 14,8 C 13,3 C 10,6 C 93 % 1023,4 hPa 0,0 l/m 0 min 0 min 0 W/m 0,0 km/h (0 Bft) 97,87 %
08.10.2023 20:54 14,7 C 13,3 C 10,0 C 94 % 1023,4 hPa 0,0 l/m 0 min 0 min 0 W/m 0,0 km/h (0 Bft) 97,87 %
08.10.2023 20:56 14,7 C 13,3 C 10,0 C 94 % 1023,4 hPa 0,0 l/m 0 min 0 min 0 W/m 0,0 km/h (0 Bft) 97,83 %
08.10.2023 20:58 14,7 C 13,3 C 10,0 C 94 % 1023,4 hPa 0,0 l/m 0 min 0 min 0 W/m 0,0 km/h (0 Bft) 93,62 %
08.10.2023 21:00 14,7 C 13,3 C 10,0 C 94 % 1023,4 hPa 0,0 l/m 0 min 0 min 0 W/m 0,0 km/h (0 Bft) 97,44 %
08.10.2023 21:02 14,6 C 13,3 C 10,0 C 94 % 1023,3 hPa 0,0 l/m 0 min 0 min 0 W/m 0,0 km/h (0 Bft) 97,83 %
08.10.2023 21:04 14,6 C 13,3 C 10,0 C 94 % 1023,3 hPa 0,0 l/m 0 min 0 min 0 W/m 0,0 km/h (0 Bft) 97,87 %
08.10.2023 21:06 14,6 C 13,3 C 10,0 C 94 % 1023,3 hPa 0,0 l/m 0 min 0 min 0 W/m 0,0 km/h (0 Bft) 100,00 %
08.10.2023 21:08 14,6 C 13,3 C 10,0 C 94 % 1023,3 hPa 0,0 l/m 0 min 0 min 0 W/m 0,0 km/h (0 Bft) 100,00 %
08.10.2023 21:10 14,6 C 13,3 C 10,0 C 94 % 1023,3 hPa 0,0 l/m 0 min 0 min 0 W/m 0,0 km/h (0 Bft) 100,00 %
08.10.2023 21:12 14,5 C 13,3 C 10,0 C 94 % 1023,2 hPa 0,0 l/m 0 min 0 min 0 W/m 0,0 km/h (0 Bft) 100,00 %
08.10.2023 21:14 14,5 C 13,3 C 10,0 C 94 % 1023,1 hPa 0,0 l/m 0 min 0 min 0 W/m 0,0 km/h (0 Bft) 100,00 %
08.10.2023 21:16 14,4 C 13,3 C 10,0 C 94 % 1023,2 hPa 0,0 l/m 0 min 0 min 0 W/m 0,0 km/h (0 Bft) 100,00 %
08.10.2023 21:18 14,4 C 13,3 C 10,0 C 94 % 1023,2 hPa 0,0 l/m 0 min 0 min 0 W/m 0,0 km/h (0 Bft) 100,00 %
08.10.2023 21:20 14,4 C 13,3 C 10,0 C 94 % 1023,1 hPa 0,0 l/m 0 min 0 min 0 W/m 0,0 km/h (0 Bft) 100,00 %
08.10.2023 21:22 14,4 C 13,3 C 10,0 C 94 % 1023,0 hPa 0,0 l/m 0 min 0 min 0 W/m 0,0 km/h (0 Bft) 95,74 %
08.10.2023 21:24 14,3 C 13,3 C 10,0 C 94 % 1022,9 hPa 0,0 l/m 0 min 0 min 0 W/m 0,0 km/h (0 Bft) 100,00 %
08.10.2023 21:26 14,3 C 13,3 C 10,0 C 94 % 1022,9 hPa 0,0 l/m 0 min 0 min 0 W/m 0,0 km/h (0 Bft) 93,62 %
08.10.2023 21:28 14,3 C 13,3 C 10,0 C 94 % 1022,9 hPa 0,0 l/m 0 min 0 min 0 W/m 3,2 km/h (1 Bft) 100,00 %
08.10.2023 21:30 14,3 C 13,3 C 10,0 C 94 % 1022,9 hPa 0,0 l/m 0 min 0 min 0 W/m 3,2 km/h (1 Bft) 100,00 %
08.10.2023 21:32 14,3 C 13,3 C 10,0 C 94 % 1022,8 hPa 0,0 l/m 0 min 0 min 0 W/m 0,0 km/h (0 Bft) 100,00 %
08.10.2023 21:34 14,3 C 13,3 C 10,0 C 94 % 1022,9 hPa 0,0 l/m 0 min 0 min 0 W/m 3,2 km/h (1 Bft) 100,00 %
08.10.2023 21:36 14,3 C 13,3 C 10,0 C 94 % 1022,9 hPa 0,0 l/m 0 min 0 min 0 W/m 3,2 km/h (1 Bft) 97,87 %
08.10.2023 21:38 14,3 C 13,3 C 10,0 C 94 % 1023,0 hPa 0,0 l/m 0 min 0 min 0 W/m 6,4 km/h (2 Bft) 97,87 %
08.10.2023 21:40 14,3 C 13,3 C 10,0 C 95 % 1023,0 hPa 0,0 l/m 0 min 0 min 0 W/m 3,2 km/h (1 Bft) 97,83 %
08.10.2023 21:42 14,3 C 13,3 C 10,0 C 95 % 1022,8 hPa 0,0 l/m 0 min 0 min 0 W/m 3,2 km/h (1 Bft) 97,87 %
08.10.2023 21:44 14,3 C 13,3 C 10,0 C 95 % 1022,9 hPa 0,0 l/m 0 min 0 min 0 W/m 0,0 km/h (0 Bft) 97,87 %
08.10.2023 21:46 14,3 C 13,3 C 10,0 C 95 % 1022,8 hPa 0,0 l/m 0 min 0 min 0 W/m 3,2 km/h (1 Bft) 97,87 %
08.10.2023 21:48 14,3 C 13,3 C 10,0 C 95 % 1022,8 hPa 0,0 l/m 0 min 0 min 0 W/m 0,0 km/h (0 Bft) 97,87 %
08.10.2023 21:50 14,3 C 13,3 C 10,0 C 95 % 1022,8 hPa 0,0 l/m 0 min 0 min 0 W/m 0,0 km/h (0 Bft) 95,74 %
08.10.2023 21:52 14,3 C 13,3 C 10,0 C 95 % 1022,8 hPa 0,0 l/m 0 min 0 min 0 W/m 3,2 km/h (1 Bft) 95,74 %
08.10.2023 21:54 14,3 C 13,3 C 10,0 C 95 % 1022,8 hPa 0,0 l/m 0 min 0 min 0 W/m 0,0 km/h (0 Bft) 93,62 %
08.10.2023 21:56 14,3 C 13,3 C 10,0 C 95 % 1022,8 hPa 0,0 l/m 0 min 0 min 0 W/m 3,2 km/h (1 Bft) 93,62 %
08.10.2023 21:58 14,3 C 13,3 C 10,0 C 95 % 1022,8 hPa 0,0 l/m 0 min 0 min 0 W/m 0,0 km/h (0 Bft) 95,74 %
08.10.2023 22:00 14,3 C 13,3 C 10,0 C 95 % 1022,7 hPa 0,0 l/m 0 min 0 min 0 W/m 0,0 km/h (0 Bft) 95,65 %
08.10.2023 22:02 14,3 C 13,3 C 10,0 C 95 % 1022,8 hPa 0,0 l/m 0 min 0 min 0 W/m 0,0 km/h (0 Bft) 93,62 %
08.10.2023 22:04 14,3 C 13,3 C 10,0 C 95 % 1022,8 hPa 0,0 l/m 0 min 0 min 0 W/m 0,0 km/h (0 Bft) 93,62 %
08.10.2023 22:06 14,3 C 13,3 C 10,0 C 95 % 1022,7 hPa 0,0 l/m 0 min 0 min 0 W/m 3,2 km/h (1 Bft) 93,62 %
08.10.2023 22:08 14,3 C 13,3 C 10,0 C 95 % 1022,7 hPa 0,0 l/m 0 min 0 min 0 W/m 3,2 km/h (1 Bft) 95,74 %
08.10.2023 22:10 14,3 C 13,3 C 10,0 C 95 % 1022,7 hPa 0,0 l/m 0 min 0 min 0 W/m 3,2 km/h (1 Bft) 95,74 %
08.10.2023 22:12 14,3 C 13,3 C 10,0 C 95 % 1022,6 hPa 0,0 l/m 0 min 0 min 0 W/m 0,0 km/h (0 Bft) 93,62 %
08.10.2023 22:14 14,2 C 13,3 C 10,0 C 95 % 1022,7 hPa 0,0 l/m 0 min 0 min 0 W/m 3,2 km/h (1 Bft) 93,62 %
08.10.2023 22:16 14,3 C 13,3 C 10,0 C 95 % 1022,6 hPa 0,0 l/m 0 min 0 min 0 W/m 3,2 km/h (1 Bft) 97,87 %
08.10.2023 22:18 14,2 C 13,3 C 10,0 C 95 % 1022,6 hPa 0,0 l/m 0 min 0 min 0 W/m 3,2 km/h (1 Bft) 97,83 %
08.10.2023 22:20 14,2 C 13,3 C 10,0 C 95 % 1022,6 hPa 0,0 l/m 0 min 0 min 0 W/m 3,2 km/h (1 Bft) 93,62 %
08.10.2023 22:22 14,3 C 13,3 C 10,0 C 95 % 1022,5 hPa 0,0 l/m 0 min 0 min 0 W/m 3,2 km/h (1 Bft) 95,74 %
08.10.2023 22:24 14,3 C 13,3 C 10,0 C 96 % 1022,5 hPa 0,0 l/m 0 min 0 min 0 W/m 0,0 km/h (0 Bft) 95,74 %
08.10.2023 22:26 14,3 C 13,3 C 10,0 C 96 % 1022,5 hPa 0,0 l/m 0 min 0 min 0 W/m 3,2 km/h (1 Bft) 95,74 %
08.10.2023 22:28 14,3 C 13,3 C 10,0 C 96 % 1022,5 hPa 0,0 l/m 0 min 0 min 0 W/m 3,2 km/h (1 Bft) 95,74 %
08.10.2023 22:30 14,3 C 13,3 C 10,0 C 96 % 1022,5 hPa 0,0 l/m 0 min 0 min 0 W/m 6,4 km/h (2 Bft) 95,74 %
08.10.2023 22:32 14,3 C 13,3 C 10,0 C 96 % 1022,5 hPa 0,0 l/m 0 min 0 min 0 W/m 6,4 km/h (2 Bft) 93,62 %
08.10.2023 22:34 14,3 C 13,3 C 10,0 C 96 % 1022,4 hPa 0,0 l/m 0 min 0 min 0 W/m 3,2 km/h (1 Bft) 91,49 %
08.10.2023 22:36 14,3 C 13,3 C 10,0 C 96 % 1022,4 hPa 0,0 l/m 0 min 0 min 0 W/m 3,2 km/h (1 Bft) 95,74 %
08.10.2023 22:38 14,3 C 13,3 C 10,6 C 96 % 1022,4 hPa 0,0 l/m 0 min 0 min 0 W/m 9,7 km/h (2 Bft) 93,48 %
08.10.2023 22:40 14,3 C 13,3 C 10,6 C 96 % 1022,4 hPa 0,0 l/m 0 min 0 min 0 W/m 9,7 km/h (2 Bft) 95,74 %
08.10.2023 22:42 14,3 C 13,3 C 10,6 C 96 % 1022,2 hPa 0,0 l/m 0 min 0 min 0 W/m 6,4 km/h (2 Bft) 95,74 %
08.10.2023 22:44 14,3 C 13,9 C 10,6 C 96 % 1022,2 hPa 0,0 l/m 0 min 0 min 0 W/m 6,4 km/h (2 Bft) 93,62 %
08.10.2023 22:46 14,3 C 13,9 C 10,6 C 96 % 1022,2 hPa 0,0 l/m 0 min 0 min 0 W/m 6,4 km/h (2 Bft) 93,62 %
08.10.2023 22:48 14,3 C 13,9 C 10,6 C 96 % 1022,2 hPa 0,0 l/m 0 min 0 min 0 W/m 3,2 km/h (1 Bft) 97,87 %
08.10.2023 22:50 14,4 C 13,9 C 10,6 C 96 % 1022,2 hPa 0,0 l/m 0 min 0 min 0 W/m 3,2 km/h (1 Bft) 100,00 %
08.10.2023 22:52 14,4 C 13,9 C 10,6 C 96 % 1022,2 hPa 0,0 l/m 0 min 0 min 0 W/m 3,2 km/h (1 Bft) 100,00 %
08.10.2023 22:54 14,4 C 13,9 C 10,6 C 96 % 1022,3 hPa 0,0 l/m 0 min 0 min 0 W/m 3,2 km/h (1 Bft) 100,00 %
08.10.2023 22:56 14,4 C 13,9 C 10,6 C 96 % 1022,4 hPa 0,0 l/m 0 min 0 min 0 W/m 0,0 km/h (0 Bft) 97,87 %
08.10.2023 22:58 14,4 C 13,9 C 10,6 C 96 % 1022,4 hPa 0,0 l/m 0 min 0 min 0 W/m 0,0 km/h (0 Bft) 97,87 %
08.10.2023 23:00 14,4 C 13,9 C 10,6 C 96 % 1022,4 hPa 0,0 l/m 0 min 0 min 0 W/m 3,2 km/h (1 Bft) 100,00 %
08.10.2023 23:02 14,4 C 13,9 C 10,6 C 96 % 1022,4 hPa 0,0 l/m 0 min 0 min 0 W/m 0,0 km/h (0 Bft) 100,00 %
08.10.2023 23:04 14,4 C 13,9 C 10,6 C 96 % 1022,4 hPa 0,0 l/m 0 min 0 min 0 W/m 3,2 km/h (1 Bft) 95,83 %
08.10.2023 23:06 14,4 C 13,9 C 10,6 C 96 % 1022,3 hPa 0,0 l/m 0 min 0 min 0 W/m 6,4 km/h (2 Bft) 100,00 %
08.10.2023 23:08 14,5 C 13,9 C 10,6 C 96 % 1022,2 hPa 0,0 l/m 0 min 0 min 0 W/m 6,4 km/h (2 Bft) 100,00 %
08.10.2023 23:10 14,5 C 13,9 C 10,6 C 97 % 1022,3 hPa 0,0 l/m 0 min 0 min 0 W/m 6,4 km/h (2 Bft) 100,00 %
08.10.2023 23:12 14,6 C 13,9 C 10,6 C 97 % 1022,2 hPa 0,0 l/m 0 min 0 min 0 W/m 3,2 km/h (1 Bft) 97,87 %
08.10.2023 23:14 14,6 C 13,9 C 10,6 C 96 % 1022,2 hPa 0,0 l/m 0 min 0 min 0 W/m 3,2 km/h (1 Bft) 100,00 %
08.10.2023 23:16 14,6 C 13,9 C 10,6 C 97 % 1022,2 hPa 0,0 l/m 0 min 0 min 0 W/m 9,7 km/h (2 Bft) 100,00 %
08.10.2023 23:18 14,7 C 13,9 C 10,6 C 97 % 1022,3 hPa 0,0 l/m 0 min 0 min 0 W/m 6,4 km/h (2 Bft) 100,00 %
08.10.2023 23:20 14,7 C 13,9 C 10,6 C 97 % 1022,3 hPa 0,0 l/m 0 min 0 min 0 W/m 3,2 km/h (1 Bft) 100,00 %
08.10.2023 23:22 14,7 C 13,9 C 10,6 C 97 % 1022,3 hPa 0,0 l/m 0 min 0 min 0 W/m 3,2 km/h (1 Bft) 97,87 %
08.10.2023 23:24 14,7 C 13,9 C 10,6 C 97 % 1022,3 hPa 0,0 l/m 0 min 0 min 0 W/m 3,2 km/h (1 Bft) 100,00 %
08.10.2023 23:26 14,7 C 13,9 C 10,6 C 97 % 1022,4 hPa 0,0 l/m 0 min 0 min 0 W/m 3,2 km/h (1 Bft) 100,00 %
08.10.2023 23:28 14,7 C 13,9 C 10,6 C 97 % 1022,4 hPa 0,0 l/m 0 min 0 min 0 W/m 3,2 km/h (1 Bft) 100,00 %
08.10.2023 23:30 14,7 C 13,9 C 10,6 C 97 % 1022,4 hPa 0,0 l/m 0 min 0 min 0 W/m 0,0 km/h (0 Bft) 100,00 %
08.10.2023 23:32 14,7 C 13,9 C 10,6 C 97 % 1022,4 hPa 0,0 l/m 0 min 0 min 0 W/m 0,0 km/h (0 Bft) 100,00 %
08.10.2023 23:34 14,7 C 13,9 C 10,6 C 97 % 1022,4 hPa 0,0 l/m 0 min 0 min 0 W/m 3,2 km/h (1 Bft) 100,00 %
08.10.2023 23:36 14,7 C 13,9 C 10,6 C 97 % 1022,4 hPa 0,0 l/m 0 min 0 min 0 W/m 3,2 km/h (1 Bft) 100,00 %
08.10.2023 23:38 14,7 C 13,9 C 10,6 C 97 % 1022,4 hPa 0,0 l/m 0 min 0 min 0 W/m 0,0 km/h (0 Bft) 100,00 %
08.10.2023 23:40 14,7 C 13,9 C 10,6 C 97 % 1022,4 hPa 0,0 l/m 0 min 0 min 0 W/m 0,0 km/h (0 Bft) 100,00 %
08.10.2023 23:42 14,6 C 13,9 C 10,6 C 97 % 1022,3 hPa 0,0 l/m 0 min 0 min 0 W/m 0,0 km/h (0 Bft) 100,00 %
08.10.2023 23:44 14,6 C 13,9 C 10,6 C 97 % 1022,2 hPa 0,0 l/m 0 min 0 min 0 W/m 0,0 km/h (0 Bft) 95,74 %
08.10.2023 23:46 14,6 C 13,3 C 10,6 C 97 % 1022,2 hPa 0,0 l/m 0 min 0 min 0 W/m 0,0 km/h (0 Bft) 33,33 %
08.10.2023 23:48 14,6 C 13,3 C 10,6 C 97 % 1022,2 hPa 0,0 l/m 0 min 0 min 0 W/m 3,2 km/h (1 Bft) 100,00 %
08.10.2023 23:50 14,6 C 13,3 C 10,6 C 97 % 1022,2 hPa 0,0 l/m 0 min 0 min 0 W/m 0,0 km/h (0 Bft) 100,00 %
08.10.2023 23:52 14,6 C 13,3 C 10,6 C 97 % 1022,2 hPa 0,0 l/m 0 min 0 min 0 W/m 0,0 km/h (0 Bft) 100,00 %
08.10.2023 23:54 14,6 C 13,3 C 10,0 C 97 % 1022,1 hPa 0,0 l/m 0 min 0 min 0 W/m 0,0 km/h (0 Bft) 97,87 %
08.10.2023 23:56 14,6 C 13,3 C 10,0 C 97 % 1022,1 hPa 0,0 l/m 0 min 0 min 0 W/m 0,0 km/h (0 Bft) 100,00 %
08.10.2023 23:58 14,5 C 13,3 C 10,0 C 97 % 1022,1 hPa 0,0 l/m 0 min 0 min 0 W/m 0,0 km/h (0 Bft) 97,87 %
_ Min-Zeit 22:14 20:38 20:54 00:42 23:54 - - - - 04:42 23:46
Minimum _ 14,2 C 13,3 C 10,0 C 79 % 1022,1 hPa - - - - 0,0 km/h (0 Bft) 33,33 %
_ Max-Zeit 13:58 13:46 12:44 23:10 11:40 00:00 11:24 07:18 15:44 00:08 00:40
Maximum _ 18,8 C 19,4 C 14,4 C 97 % 1026,4 hPa 0,0 l/m 2 min 2 min 417 W/m 19,3 km/h
NW (3 Bft)
100,00 %
Durchschnitt _ 16,7 C 16,1 C 12,3 C 86 % 1024,4 hPa #0,0 l/m #2:02 h #6 min. 138 W/m 5,2 km/h (1 Bft) 97,52 %
© 2023 W. Hausmann